| time (UTC) | temp F | wind direction | speed MPH | gust MPH | rain 1hr in | rain 24hr in | rain mn in | humidity % | barometer mb |
| 20260902053631 | 67 | 262 | 3.0 | 7.0 | 0.00 | 0.00 | 0.00 | 90 | 1055.3 |
| 20260902053405 | 67 | 278 | 3.0 | 7.0 | 0.00 | 0.00 | 0.00 | 90 | 1055.3 |
| 20260902053354 | 67 | 276 | 3.0 | 7.0 | 0.00 | 0.00 | 0.00 | 90 | 1055.3 |
| 20260902052845 | 67 | 313 | 3.0 | 6.0 | 0.00 | 0.00 | 0.00 | 90 | 1055.3 |
| 20260902052836 | 67 | 267 | 2.0 | 6.0 | 0.00 | 0.00 | 0.00 | 91 | 1055.3 |
| 20260902052507 | 66 | 268 | 2.0 | 6.0 | 0.00 | 0.00 | 0.00 | 91 | 1055.3 |
| 20260902052407 | 66 | 269 | 2.0 | 6.0 | 0.00 | 0.00 | 0.00 | 91 | 1055.3 |
| 20260902052306 | 66 | 274 | 2.0 | 6.0 | 0.00 | 0.00 | 0.00 | 91 | 1055.3 |
| 20260902052208 | 66 | 273 | 2.0 | 6.0 | 0.00 | 0.00 | 0.00 | 91 | 1055.3 |
| 20260902052107 | 66 | 273 | 2.0 | 6.0 | 0.00 | 0.00 | 0.00 | 91 | 1055.3 |
| 20260902052034 | 66 | 273 | 2.0 | 6.0 | 0.00 | 0.00 | 0.00 | 91 | 1055.3 |
| 20260902052023 | 66 | 274 | 2.0 | 6.0 | 0.00 | 0.00 | 0.00 | 91 | 1055.4 |
| 20260902052002 | 66 | 272 | 2.0 | 7.0 | 0.00 | 0.00 | 0.00 | 91 | 1055.3 |
| 20260902051955 | 66 | 273 | 2.0 | 7.0 | 0.00 | 0.00 | 0.00 | 91 | 1055.3 |
| 20260902051726 | 66 | 272 | 3.0 | 7.0 | 0.00 | 0.00 | 0.00 | 91 | 1055.4 |
| 20260902051404 | 66 | 272 | 3.0 | 7.0 | 0.00 | 0.00 | 0.00 | 91 | 1055.3 |
| 20260902051305 | 66 | 272 | 3.0 | 7.0 | 0.00 | 0.00 | 0.00 | 91 | 1055.3 |
| 20260902051221 | 66 | 272 | 3.0 | 7.0 | 0.00 | 0.00 | 0.00 | 91 | 1055.3 |
| 20260902051213 | 66 | 272 | 3.0 | 7.0 | 0.00 | 0.00 | 0.00 | 91 | 1055.2 |
| 20260902051200 | 66 | 272 | 3.0 | 7.0 | 0.00 | 0.00 | 0.00 | 91 | 1055.3 |
| 20260902051150 | 66 | 272 | 3.0 | 7.0 | 0.00 | 0.00 | 0.00 | 91 | 1055.3 |
| 20260902050927 | 66 | 272 | 3.0 | 7.0 | 0.00 | 0.00 | 0.00 | 91 | 1055.2 |
| 20260902050602 | 66 | 274 | 2.0 | 7.0 | 0.00 | 0.00 | 0.00 | 91 | 1055.2 |
| 20260902050507 | 66 | 272 | 2.0 | 7.0 | 0.00 | 0.00 | 0.00 | 91 | 1055.2 |
| 20260902050446 | 66 | 270 | 2.0 | 4.0 | 0.00 | 0.00 | 0.00 | 91 | 1055.2 |
| 20260902050438 | 66 | 270 | 2.0 | 4.0 | 0.00 | 0.00 | 0.00 | 91 | 1055.2 |
| 20260902050100 | 66 | 270 | 2.0 | 4.0 | 0.00 | 0.00 | 0.00 | 91 | 1055.2 |
| 20260902050050 | 66 | 269 | 2.0 | 4.0 | 0.00 | 0.00 | 0.00 | 91 | 1055.1 |
| 20260902050016 | 65 | 270 | 2.0 | 4.0 | 0.00 | 0.00 | 0.00 | 91 | 1055.1 |
| 20260902045655 | 65 | 269 | 2.0 | 4.0 | 0.00 | 0.00 | 0.00 | 91 | 1055.1 |
| 20260902045556 | 65 | 270 | 2.0 | 4.0 | 0.00 | 0.00 | 0.00 | 91 | 1055.1 |
| 20260902045456 | 65 | 270 | 3.0 | 4.0 | 0.00 | 0.00 | 0.00 | 91 | 1055.1 |
| 20260902045358 | 65 | 269 | 3.0 | 4.0 | 0.00 | 0.00 | 0.00 | 91 | 1055.1 |
| 20260902045306 | 65 | 269 | 3.0 | 4.0 | 0.00 | 0.00 | 0.00 | 91 | 1055.1 |
| 20260902045255 | 65 | 269 | 3.0 | 4.0 | 0.00 | 0.00 | 0.00 | 91 | 1055.1 |
| 20260902045156 | 65 | 269 | 3.0 | 4.0 | 0.00 | 0.00 | 0.00 | 91 | 1055.1 |
| 20260902045124 | 65 | 269 | 2.0 | 4.0 | 0.00 | 0.00 | 0.00 | 91 | 1055.1 |
| 20260902045116 | 65 | 269 | 2.0 | 4.0 | 0.00 | 0.00 | 0.00 | 91 | 1055.0 |
| 20260902044801 | 65 | 269 | 3.0 | 4.0 | 0.00 | 0.00 | 0.00 | 90 | 1055.0 |
| 20260902044747 | 65 | 269 | 3.0 | 4.0 | 0.00 | 0.00 | 0.00 | 90 | 1055.0 |
| 20260902044647 | 65 | 269 | 3.0 | 6.0 | 0.00 | 0.00 | 0.00 | 90 | 1055.0 |
| 20260902044548 | 65 | 269 | 3.0 | 6.0 | 0.00 | 0.00 | 0.00 | 90 | 1055.0 |
| 20260902044448 | 65 | 270 | 3.0 | 6.0 | 0.00 | 0.00 | 0.00 | 90 | 1054.9 |
| 20260902044348 | 65 | 269 | 2.0 | 6.0 | 0.00 | 0.00 | 0.00 | 90 | 1055.0 |
| 20260902044301 | 65 | 270 | 3.0 | 6.0 | 0.00 | 0.00 | 0.00 | 90 | 1054.9 |
| 20260902044241 | 65 | 269 | 3.0 | 6.0 | 0.00 | 0.00 | 0.00 | 90 | 1054.9 |
| 20260902044141 | 65 | 269 | 3.0 | 6.0 | 0.00 | 0.00 | 0.00 | 90 | 1055.0 |
| 20260902044041 | 65 | 269 | 3.0 | 6.0 | 0.00 | 0.00 | 0.00 | 90 | 1054.9 |
| 20260902043942 | 65 | 270 | 3.0 | 6.0 | 0.00 | 0.00 | 0.00 | 90 | 1054.9 |
| 20260902043841 | 65 | 270 | 2.0 | 6.0 | 0.00 | 0.00 | 0.00 | 90 | 1055.0 |
| 20260902043738 | 65 | 269 | 2.0 | 6.0 | 0.00 | 0.00 | 0.00 | 90 | 1054.9 |
| 20260902043637 | 65 | 271 | 2.0 | 4.0 | 0.00 | 0.00 | 0.00 | 90 | 1054.9 |
| 20260902043543 | 65 | 270 | 2.0 | 4.0 | 0.00 | 0.00 | 0.00 | 90 | 1054.9 |
| 20260902043533 | 65 | 272 | 2.0 | 4.0 | 0.00 | 0.00 | 0.00 | 90 | 1054.9 |
| 20260902043520 | 65 | 270 | 2.0 | 4.0 | 0.00 | 0.00 | 0.00 | 90 | 1054.9 |
| 20260902043239 | 65 | 271 | 2.0 | 4.0 | 0.00 | 0.00 | 0.00 | 90 | 1054.9 |
| 20260902043133 | 66 | 271 | 2.0 | 4.0 | 0.00 | 0.00 | 0.00 | 90 | 1055.0 |
| 20260902043039 | 66 | 271 | 2.0 | 4.0 | 0.00 | 0.00 | 0.00 | 90 | 1055.0 |
| 20260902043029 | 65 | 271 | 2.0 | 4.0 | 0.00 | 0.00 | 0.00 | 90 | 1055.0 |
| 20260902043006 | 66 | 271 | 2.0 | 4.0 | 0.00 | 0.00 | 0.00 | 90 | 1055.0 |
| 20260902042957 | 66 | 270 | 2.0 | 4.0 | 0.00 | 0.00 | 0.00 | 90 | 1055.0 |
| 20260902042632 | 66 | 271 | 2.0 | 4.0 | 0.00 | 0.00 | 0.00 | 90 | 1055.1 |
| 20260902042547 | 66 | 271 | 2.0 | 4.0 | 0.00 | 0.00 | 0.00 | 90 | 1055.0 |
| 20260902042537 | 66 | 270 | 2.0 | 4.0 | 0.00 | 0.00 | 0.00 | 90 | 1055.0 |
| 20260902042520 | 66 | 270 | 2.0 | 4.0 | 0.00 | 0.00 | 0.00 | 90 | 1055.0 |
| 20260902042229 | 66 | 271 | 2.0 | 4.0 | 0.00 | 0.00 | 0.00 | 90 | 1055.0 |
| 20260902042200 | 66 | 270 | 3.0 | 4.0 | 0.00 | 0.00 | 0.00 | 90 | 1055.0 |
| 20260902042153 | 66 | 270 | 3.0 | 6.0 | 0.00 | 0.00 | 0.00 | 90 | 1055.0 |
| 20260902041829 | 66 | 271 | 3.0 | 6.0 | 0.00 | 0.00 | 0.00 | 90 | 1055.0 |
| 20260902041759 | 66 | 271 | 3.0 | 6.0 | 0.00 | 0.00 | 0.00 | 90 | 1055.0 |
| 20260902041729 | 66 | 271 | 3.0 | 6.0 | 0.00 | 0.00 | 0.00 | 90 | 1055.0 |
| 20260902041629 | 66 | 270 | 3.0 | 6.0 | 0.00 | 0.00 | 0.00 | 90 | 1055.1 |
| 20260902041521 | 66 | 270 | 3.0 | 6.0 | 0.00 | 0.00 | 0.00 | 90 | 1055.1 |
| 20260902041501 | 66 | 271 | 3.0 | 7.0 | 0.00 | 0.00 | 0.00 | 90 | 1055.1 |
| 20260902041452 | 66 | 270 | 4.0 | 7.0 | 0.00 | 0.00 | 0.00 | 90 | 1055.1 |
| 20260902041443 | 66 | 271 | 4.0 | 7.0 | 0.00 | 0.00 | 0.00 | 90 | 1055.0 |
| 20260902041122 | 66 | 270 | 4.0 | 7.0 | 0.00 | 0.00 | 0.00 | 90 | 1055.0 |
| 20260902041014 | 66 | 270 | 4.0 | 7.0 | 0.00 | 0.00 | 0.00 | 90 | 1055.0 |
| 20260902040916 | 66 | 271 | 4.0 | 7.0 | 0.00 | 0.00 | 0.00 | 90 | 1055.0 |
| 20260902040816 | 66 | 270 | 4.0 | 7.0 | 0.00 | 0.00 | 0.00 | 90 | 1055.0 |
| 20260902040740 | 66 | 270 | 4.0 | 7.0 | 0.00 | 0.00 | 0.00 | 90 | 1055.0 |
| 20260902040732 | 66 | 270 | 4.0 | 7.0 | 0.00 | 0.00 | 0.00 | 90 | 1055.0 |
| 20260902040412 | 66 | 268 | 4.0 | 6.0 | 0.00 | 0.00 | 0.00 | 90 | 1055.1 |
| 20260902040310 | 66 | 268 | 4.0 | 6.0 | 0.00 | 0.00 | 0.00 | 90 | 1055.1 |
| 20260902040253 | 66 | 268 | 4.0 | 6.0 | 0.00 | 0.00 | 0.00 | 90 | 1055.1 |
| 20260902040209 | 66 | 268 | 4.0 | 6.0 | 0.00 | 0.00 | 0.00 | 90 | 1055.0 |
| 20260902040132 | 66 | 268 | 4.0 | 6.0 | 0.00 | 0.00 | 0.00 | 90 | 1055.0 |
| 20260902040123 | 66 | 268 | 4.0 | 6.0 | 0.00 | 0.00 | 0.00 | 90 | 1055.0 |
| 20260902040111 | 66 | 268 | 4.0 | 6.0 | 0.00 | 0.00 | 0.00 | 90 | 1055.0 |
| 20260902040056 | 66 | 268 | 4.0 | 6.0 | 0.00 | 0.00 | 0.00 | 90 | 1055.0 |
| 20260902035832 | 66 | 268 | 3.0 | 6.0 | 0.00 | 0.00 | 0.00 | 91 | 1055.0 |
| 20260902035543 | 66 | 266 | 3.0 | 6.0 | 0.00 | 0.00 | 0.00 | 90 | 1055.0 |
| 20260902035533 | 66 | 264 | 3.0 | 6.0 | 0.00 | 0.00 | 0.00 | 90 | 1055.0 |
| 20260902035251 | 66 | 263 | 3.0 | 6.0 | 0.00 | 0.00 | 0.00 | 90 | 1055.0 |
| 20260902035204 | 66 | 264 | 3.0 | 6.0 | 0.00 | 0.00 | 0.00 | 90 | 1055.0 |
| 20260902035142 | 66 | 263 | 3.0 | 6.0 | 0.00 | 0.00 | 0.00 | 90 | 1055.0 |
| 20260902035132 | 66 | 263 | 3.0 | 6.0 | 0.00 | 0.00 | 0.00 | 90 | 1055.0 |
| 20260902034759 | 66 | 264 | 3.0 | 6.0 | 0.00 | 0.00 | 0.00 | 90 | 1055.1 |
| 20260902034751 | 66 | 263 | 3.0 | 6.0 | 0.00 | 0.00 | 0.00 | 90 | 1055.1 |
| 20260902034659 | 66 | 263 | 3.0 | 6.0 | 0.00 | 0.00 | 0.00 | 90 | 1055.1 |
| 20260902034559 | 66 | 263 | 3.0 | 6.0 | 0.00 | 0.00 | 0.00 | 90 | 1055.2 |
| 20260902034457 | 66 | 263 | 3.0 | 6.0 | 0.00 | 0.00 | 0.00 | 90 | 1055.2 |
| 20260902034437 | 66 | 263 | 3.0 | 6.0 | 0.00 | 0.00 | 0.00 | 90 | 1055.2 |
| 20260902034420 | 66 | 263 | 3.0 | 6.0 | 0.00 | 0.00 | 0.00 | 90 | 1055.2 |
| 20260902034057 | 66 | 263 | 3.0 | 6.0 | 0.00 | 0.00 | 0.00 | 90 | 1055.2 |
| 20260902033955 | 66 | 261 | 2.0 | 6.0 | 0.00 | 0.00 | 0.00 | 90 | 1055.2 |
| 20260902033935 | 66 | 261 | 2.0 | 4.0 | 0.00 | 0.00 | 0.00 | 90 | 1055.2 |
| 20260902033918 | 66 | 261 | 2.0 | 4.0 | 0.00 | 0.00 | 0.00 | 90 | 1055.2 |
| 20260902033642 | 66 | 260 | 2.0 | 4.0 | 0.00 | 0.00 | 0.00 | 90 | 1055.2 |
| 20260902033634 | 66 | 260 | 2.0 | 4.0 | 0.00 | 0.00 | 0.00 | 90 | 1055.2 |
| 20260902033626 | 66 | 260 | 2.0 | 4.0 | 0.00 | 0.00 | 0.00 | 90 | 1055.3 |
| 20260902033611 | 66 | 260 | 2.0 | 4.0 | 0.00 | 0.00 | 0.00 | 90 | 1055.2 |
| 20260902033339 | 66 | 260 | 2.0 | 4.0 | 0.00 | 0.00 | 0.00 | 90 | 1055.3 |
| 20260902033108 | 66 | 260 | 2.0 | 4.0 | 0.00 | 0.00 | 0.00 | 90 | 1055.3 |
| 20260902032846 | 66 | 260 | 2.0 | 4.0 | 0.00 | 0.00 | 0.00 | 90 | 1055.3 |
| 20260902032835 | 66 | 260 | 2.0 | 4.0 | 0.00 | 0.00 | 0.00 | 90 | 1055.4 |
| 20260902032826 | 66 | 260 | 2.0 | 4.0 | 0.00 | 0.00 | 0.00 | 90 | 1055.3 |
| 20260902032818 | 66 | 260 | 2.0 | 4.0 | 0.00 | 0.00 | 0.00 | 90 | 1055.3 |
| 20260902032543 | 66 | 260 | 2.0 | 3.0 | 0.00 | 0.00 | 0.00 | 90 | 1055.4 |
| 20260902032532 | 66 | 260 | 2.0 | 3.0 | 0.00 | 0.00 | 0.00 | 90 | 1055.4 |
| 20260902032524 | 66 | 260 | 2.0 | 4.0 | 0.00 | 0.00 | 0.00 | 90 | 1055.4 |
| 20260902031808 | 66 | 260 | 2.0 | 4.0 | 0.00 | 0.00 | 0.00 | 90 | 1055.4 |
| 20260902031752 | 66 | 260 | 2.0 | 4.0 | 0.00 | 0.00 | 0.00 | 90 | 1055.4 |
| 20260902031436 | 66 | 260 | 2.0 | 4.0 | 0.00 | 0.00 | 0.00 | 90 | 1055.3 |
| 20260902031425 | 66 | 260 | 2.0 | 4.0 | 0.00 | 0.00 | 0.00 | 90 | 1055.4 |
| 20260902031406 | 66 | 260 | 2.0 | 4.0 | 0.00 | 0.00 | 0.00 | 90 | 1055.3 |
| 20260902031138 | 66 | 260 | 2.0 | 4.0 | 0.00 | 0.00 | 0.00 | 90 | 1055.3 |
| 20260902031126 | 66 | 260 | 2.0 | 4.0 | 0.00 | 0.00 | 0.00 | 90 | 1055.2 |
| 20260902030857 | 66 | 260 | 2.0 | 4.0 | 0.00 | 0.00 | 0.00 | 90 | 1055.3 |
| 20260902030852 | 66 | 259 | 2.0 | 4.0 | 0.00 | 0.00 | 0.00 | 90 | 1055.3 |
| 20260902030527 | 66 | 260 | 2.0 | 4.0 | 0.00 | 0.00 | 0.00 | 90 | 1055.2 |
| 20260902030427 | 66 | 259 | 2.0 | 4.0 | 0.00 | 0.00 | 0.00 | 90 | 1055.3 |
| 20260902030327 | 66 | 258 | 2.0 | 4.0 | 0.00 | 0.00 | 0.00 | 90 | 1055.3 |
| 20260902030245 | 66 | 260 | 2.0 | 4.0 | 0.00 | 0.00 | 0.00 | 90 | 1055.2 |
| 20260902030228 | 66 | 259 | 2.0 | 4.0 | 0.00 | 0.00 | 0.00 | 90 | 1055.2 |
| 20260902030127 | 66 | 259 | 2.0 | 4.0 | 0.00 | 0.00 | 0.00 | 90 | 1055.3 |
| 20260902030027 | 66 | 259 | 2.0 | 4.0 | 0.00 | 0.00 | 0.00 | 90 | 1055.2 |
| 20260902030012 | 66 | 260 | 2.0 | 4.0 | 0.00 | 0.00 | 0.00 | 90 | 1055.2 |
| 20260902025959 | 66 | 260 | 2.0 | 4.0 | 0.00 | 0.00 | 0.00 | 90 | 1055.3 |
| 20260902025728 | 66 | 258 | 2.0 | 3.0 | 0.00 | 0.00 | 0.00 | 90 | 1055.3 |
| 20260902025623 | 66 | 259 | 2.0 | 3.0 | 0.00 | 0.00 | 0.00 | 90 | 1055.2 |
| 20260902025521 | 66 | 259 | 2.0 | 3.0 | 0.00 | 0.00 | 0.00 | 90 | 1055.3 |
| 20260902025422 | 66 | 259 | 2.0 | 4.0 | 0.00 | 0.00 | 0.00 | 90 | 1055.3 |
| 20260902025321 | 66 | 259 | 2.0 | 4.0 | 0.00 | 0.00 | 0.00 | 90 | 1055.2 |
| 20260902025225 | 66 | 259 | 2.0 | 4.0 | 0.00 | 0.00 | 0.00 | 90 | 1055.2 |
| 20260902025124 | 66 | 259 | 2.0 | 4.0 | 0.00 | 0.00 | 0.00 | 90 | 1055.2 |
| 20260902025031 | 66 | 259 | 2.0 | 4.0 | 0.00 | 0.00 | 0.00 | 90 | 1055.3 |
| 20260902024922 | 66 | 258 | 2.0 | 4.0 | 0.00 | 0.00 | 0.00 | 90 | 1055.2 |
| 20260902024821 | 66 | 259 | 2.0 | 4.0 | 0.00 | 0.00 | 0.00 | 90 | 1055.2 |
| 20260902024724 | 66 | 260 | 2.0 | 4.0 | 0.00 | 0.00 | 0.00 | 90 | 1055.2 |
| 20260902024620 | 66 | 259 | 2.0 | 4.0 | 0.00 | 0.00 | 0.00 | 90 | 1055.2 |
| 20260902024519 | 66 | 258 | 2.0 | 4.0 | 0.00 | 0.00 | 0.00 | 90 | 1055.2 |
| 20260902024412 | 66 | 259 | 2.0 | 4.0 | 0.00 | 0.00 | 0.00 | 90 | 1055.2 |
| 20260902024312 | 66 | 259 | 2.0 | 3.0 | 0.00 | 0.00 | 0.00 | 90 | 1055.2 |
| 20260902024243 | 66 | 258 | 2.0 | 3.0 | 0.00 | 0.00 | 0.00 | 90 | 1055.2 |
| 20260902024210 | 66 | 258 | 2.0 | 3.0 | 0.00 | 0.00 | 0.00 | 90 | 1055.3 |
| 20260902024111 | 66 | 258 | 2.0 | 3.0 | 0.00 | 0.00 | 0.00 | 90 | 1055.2 |
| 20260902024011 | 66 | 259 | 2.0 | 3.0 | 0.00 | 0.00 | 0.00 | 89 | 1055.3 |
| 20260902023932 | 66 | 258 | 2.0 | 3.0 | 0.00 | 0.00 | 0.00 | 89 | 1055.3 |
| 20260902023920 | 66 | 258 | 2.0 | 3.0 | 0.00 | 0.00 | 0.00 | 89 | 1055.3 |
| 20260902023910 | 66 | 259 | 2.0 | 3.0 | 0.00 | 0.00 | 0.00 | 89 | 1055.3 |
| 20260902023859 | 66 | 258 | 2.0 | 3.0 | 0.00 | 0.00 | 0.00 | 89 | 1055.2 |
| 20260902023634 | 66 | 259 | 2.0 | 3.0 | 0.00 | 0.00 | 0.00 | 89 | 1055.3 |
| 20260902023310 | 66 | 258 | 2.0 | 3.0 | 0.00 | 0.00 | 0.00 | 90 | 1055.3 |
| 20260902023242 | 66 | 259 | 2.0 | 3.0 | 0.00 | 0.00 | 0.00 | 90 | 1055.3 |
| 20260902023205 | 66 | 259 | 2.0 | 3.0 | 0.00 | 0.00 | 0.00 | 90 | 1055.3 |
| 20260902023139 | 66 | 258 | 2.0 | 3.0 | 0.00 | 0.00 | 0.00 | 90 | 1055.3 |
| 20260902023131 | 66 | 259 | 2.0 | 3.0 | 0.00 | 0.00 | 0.00 | 90 | 1055.4 |
| 20260902022803 | 66 | 258 | 2.0 | 3.0 | 0.00 | 0.00 | 0.00 | 90 | 1055.3 |
| 20260902022741 | 66 | 258 | 2.0 | 3.0 | 0.00 | 0.00 | 0.00 | 90 | 1055.3 |
| 20260902022703 | 66 | 259 | 2.0 | 3.0 | 0.00 | 0.00 | 0.00 | 90 | 1055.4 |
| 20260902022603 | 66 | 258 | 2.0 | 4.0 | 0.00 | 0.00 | 0.00 | 90 | 1055.4 |
| 20260902022503 | 66 | 258 | 2.0 | 4.0 | 0.00 | 0.00 | 0.00 | 90 | 1055.3 |
| 20260902022427 | 66 | 258 | 2.0 | 4.0 | 0.00 | 0.00 | 0.00 | 90 | 1055.3 |
| 20260902022415 | 66 | 259 | 2.0 | 4.0 | 0.00 | 0.00 | 0.00 | 90 | 1055.3 |
| 20260902022359 | 66 | 258 | 2.0 | 4.0 | 0.00 | 0.00 | 0.00 | 90 | 1055.3 |
| 20260902022352 | 66 | 258 | 2.0 | 4.0 | 0.00 | 0.00 | 0.00 | 89 | 1055.3 |
| 20260902022345 | 66 | 258 | 2.0 | 4.0 | 0.00 | 0.00 | 0.00 | 89 | 1055.4 |
| 20260902022331 | 66 | 258 | 2.0 | 4.0 | 0.00 | 0.00 | 0.00 | 89 | 1055.4 |
| 20260902021841 | 66 | 258 | 2.0 | 4.0 | 0.00 | 0.00 | 0.00 | 89 | 1055.4 |
| 20260902021831 | 66 | 258 | 2.0 | 4.0 | 0.00 | 0.00 | 0.00 | 89 | 1055.4 |
| 20260902021823 | 66 | 258 | 2.0 | 3.0 | 0.00 | 0.00 | 0.00 | 89 | 1055.4 |
| 20260902021547 | 66 | 258 | 2.0 | 4.0 | 0.00 | 0.00 | 0.00 | 89 | 1055.4 |
| 20260902021327 | 66 | 258 | 2.0 | 4.0 | 0.00 | 0.00 | 0.00 | 89 | 1055.3 |
| 20260902021005 | 66 | 258 | 2.0 | 4.0 | 0.00 | 0.00 | 0.00 | 89 | 1055.3 |
| 20260902020905 | 66 | 258 | 2.0 | 4.0 | 0.00 | 0.00 | 0.00 | 89 | 1055.3 |
| 20260902020803 | 66 | 258 | 2.0 | 4.0 | 0.00 | 0.00 | 0.00 | 89 | 1055.3 |
| 20260902020741 | 66 | 258 | 2.0 | 4.0 | 0.00 | 0.00 | 0.00 | 89 | 1055.3 |
| 20260902020703 | 66 | 258 | 2.0 | 4.0 | 0.00 | 0.00 | 0.00 | 89 | 1055.2 |
| 20260902020603 | 66 | 258 | 2.0 | 4.0 | 0.00 | 0.00 | 0.00 | 89 | 1055.2 |
| 20260902020503 | 66 | 258 | 2.0 | 4.0 | 0.00 | 0.00 | 0.00 | 89 | 1055.2 |
| 20260902020448 | 66 | 258 | 2.0 | 4.0 | 0.00 | 0.00 | 0.00 | 89 | 1055.3 |
| 20260902020436 | 66 | 258 | 2.0 | 3.0 | 0.00 | 0.00 | 0.00 | 89 | 1055.3 |
| 20260902020428 | 66 | 258 | 2.0 | 3.0 | 0.00 | 0.00 | 0.00 | 89 | 1055.3 |
| 20260902020041 | 66 | 258 | 2.0 | 3.0 | 0.00 | 0.00 | 0.00 | 89 | 1055.4 |
| 20260902020028 | 66 | 258 | 2.0 | 3.0 | 0.00 | 0.00 | 0.00 | 89 | 1055.4 |
| 20260902015736 | 66 | 258 | 2.0 | 4.0 | 0.00 | 0.00 | 0.00 | 89 | 1055.4 |
| 20260902015728 | 66 | 258 | 3.0 | 4.0 | 0.00 | 0.00 | 0.00 | 89 | 1055.3 |
| 20260902015715 | 66 | 258 | 3.0 | 6.0 | 0.00 | 0.00 | 0.00 | 89 | 1055.3 |
| 20260902015446 | 66 | 258 | 3.0 | 6.0 | 0.00 | 0.00 | 0.00 | 89 | 1055.3 |
| 20260902015430 | 66 | 258 | 3.0 | 6.0 | 0.00 | 0.00 | 0.00 | 89 | 1055.3 |
| 20260902015422 | 66 | 258 | 3.0 | 6.0 | 0.00 | 0.00 | 0.00 | 89 | 1055.2 |
| 20260902015151 | 66 | 258 | 3.0 | 6.0 | 0.00 | 0.00 | 0.00 | 89 | 1055.2 |
| 20260902015139 | 66 | 258 | 3.0 | 6.0 | 0.00 | 0.00 | 0.00 | 89 | 1055.3 |
| 20260902014603 | 66 | 258 | 3.0 | 6.0 | 0.00 | 0.00 | 0.00 | 89 | 1055.3 |
| 20260902014506 | 66 | 257 | 3.0 | 6.0 | 0.00 | 0.00 | 0.00 | 89 | 1055.3 |
| 20260902014404 | 66 | 258 | 2.0 | 6.0 | 0.00 | 0.00 | 0.00 | 89 | 1055.3 |
| 20260902014304 | 66 | 258 | 2.0 | 4.0 | 0.00 | 0.00 | 0.00 | 89 | 1055.3 |
| 20260902014241 | 66 | 258 | 2.0 | 4.0 | 0.00 | 0.00 | 0.00 | 89 | 1055.3 |
| 20260902014203 | 66 | 257 | 2.0 | 4.0 | 0.00 | 0.00 | 0.00 | 89 | 1055.2 |
| 20260902014135 | 66 | 257 | 2.0 | 4.0 | 0.00 | 0.00 | 0.00 | 89 | 1055.3 |
| 20260902014127 | 66 | 257 | 3.0 | 4.0 | 0.00 | 0.00 | 0.00 | 89 | 1055.3 |
| 20260902013808 | 66 | 258 | 3.0 | 4.0 | 0.00 | 0.00 | 0.00 | 89 | 1055.3 |
| 20260902013751 | 66 | 257 | 3.0 | 6.0 | 0.00 | 0.00 | 0.00 | 89 | 1055.3 |
| 20260902013739 | 66 | 258 | 3.0 | 6.0 | 0.00 | 0.00 | 0.00 | 89 | 1055.3 |
| 20260902013731 | 66 | 257 | 3.0 | 6.0 | 0.00 | 0.00 | 0.00 | 89 | 1055.3 |
| 20260902013457 | 66 | 257 | 3.0 | 6.0 | 0.00 | 0.00 | 0.00 | 89 | 1055.3 |
| 20260902013440 | 66 | 257 | 3.0 | 6.0 | 0.00 | 0.00 | 0.00 | 89 | 1055.3 |
| 20260902012904 | 66 | 257 | 3.0 | 6.0 | 0.00 | 0.00 | 0.00 | 89 | 1055.3 |
| 20260902012827 | 66 | 257 | 3.0 | 6.0 | 0.00 | 0.00 | 0.00 | 89 | 1055.4 |
| 20260902012810 | 66 | 256 | 3.0 | 6.0 | 0.00 | 0.00 | 0.00 | 89 | 1055.4 |
| 20260902012758 | 66 | 257 | 3.0 | 6.0 | 0.00 | 0.00 | 0.00 | 90 | 1055.4 |
| 20260902012747 | 66 | 257 | 3.0 | 6.0 | 0.00 | 0.00 | 0.00 | 90 | 1055.4 |
| 20260902012233 | 66 | 253 | 2.0 | 5.0 | 0.00 | 0.00 | 0.00 | 89 | 1055.4 |
| 20260902012202 | 66 | 253 | 2.0 | 5.0 | 0.00 | 0.00 | 0.00 | 89 | 1055.4 |
| 20260902012103 | 66 | 253 | 2.0 | 5.0 | 0.00 | 0.00 | 0.00 | 89 | 1055.4 |
| 20260902012019 | 66 | 254 | 2.0 | 5.0 | 0.00 | 0.00 | 0.00 | 89 | 1055.4 |
| 20260902012007 | 66 | 253 | 2.0 | 5.0 | 0.00 | 0.00 | 0.00 | 89 | 1055.4 |
| 20260902011952 | 66 | 253 | 2.0 | 5.0 | 0.00 | 0.00 | 0.00 | 89 | 1055.4 |
| 20260902011659 | 66 | 253 | 2.0 | 4.0 | 0.00 | 0.00 | 0.00 | 89 | 1055.5 |
| 20260902011559 | 66 | 253 | 2.0 | 4.0 | 0.00 | 0.00 | 0.00 | 89 | 1055.4 |
| 20260902011459 | 66 | 253 | 2.0 | 4.0 | 0.00 | 0.00 | 0.00 | 89 | 1055.5 |
| 20260902011359 | 66 | 253 | 2.0 | 4.0 | 0.00 | 0.00 | 0.00 | 89 | 1055.5 |
| 20260902011232 | 66 | 253 | 2.0 | 4.0 | 0.00 | 0.00 | 0.00 | 89 | 1055.5 |
| 20260902011158 | 66 | 253 | 2.0 | 4.0 | 0.00 | 0.00 | 0.00 | 89 | 1055.5 |
| 20260902011059 | 66 | 253 | 2.0 | 4.0 | 0.00 | 0.00 | 0.00 | 90 | 1055.6 |
| 20260902010958 | 66 | 253 | 2.0 | 4.0 | 0.00 | 0.00 | 0.00 | 90 | 1055.6 |
| 20260902010858 | 66 | 254 | 2.0 | 4.0 | 0.00 | 0.00 | 0.00 | 90 | 1055.6 |
| 20260902010731 | 66 | 253 | 2.0 | 4.0 | 0.00 | 0.00 | 0.00 | 90 | 1055.6 |
| 20260902010659 | 66 | 253 | 2.0 | 4.0 | 0.00 | 0.00 | 0.00 | 90 | 1055.6 |
| 20260902010559 | 66 | 253 | 2.0 | 4.0 | 0.00 | 0.00 | 0.00 | 89 | 1055.6 |
| 20260902010508 | 66 | 253 | 2.0 | 4.0 | 0.00 | 0.00 | 0.00 | 89 | 1055.6 |
| 20260902010458 | 66 | 253 | 2.0 | 4.0 | 0.00 | 0.00 | 0.00 | 90 | 1055.6 |
| 20260902010436 | 66 | 252 | 2.0 | 4.0 | 0.00 | 0.00 | 0.00 | 90 | 1055.6 |
| 20260902010209 | 65 | 251 | 2.0 | 3.0 | 0.00 | 0.00 | 0.00 | 90 | 1055.7 |
| 20260902010156 | 65 | 252 | 2.0 | 4.0 | 0.00 | 0.00 | 0.00 | 90 | 1055.6 |
| 20260902010146 | 65 | 252 | 2.0 | 4.0 | 0.00 | 0.00 | 0.00 | 90 | 1055.6 |
| 20260902005915 | 65 | 253 | 2.0 | 4.0 | 0.00 | 0.00 | 0.00 | 89 | 1055.6 |
| 20260902005619 | 65 | 251 | 2.0 | 4.0 | 0.00 | 0.00 | 0.00 | 89 | 1055.6 |
| 20260902005609 | 65 | 252 | 2.0 | 4.0 | 0.00 | 0.00 | 0.00 | 89 | 1055.6 |
| 20260902005221 | 65 | 252 | 3.0 | 4.0 | 0.00 | 0.00 | 0.00 | 89 | 1055.6 |
| 20260902005145 | 65 | 251 | 3.0 | 4.0 | 0.00 | 0.00 | 0.00 | 89 | 1055.6 |
| 20260902005042 | 65 | 251 | 3.0 | 4.0 | 0.00 | 0.00 | 0.00 | 89 | 1055.6 |
| 20260902004941 | 65 | 251 | 3.0 | 4.0 | 0.00 | 0.00 | 0.00 | 89 | 1055.6 |
| 20260902004840 | 65 | 252 | 3.0 | 4.0 | 0.00 | 0.00 | 0.00 | 89 | 1055.6 |
| 20260902004742 | 65 | 251 | 3.0 | 4.0 | 0.00 | 0.00 | 0.00 | 89 | 1055.6 |
| 20260902004716 | 65 | 252 | 3.0 | 4.0 | 0.00 | 0.00 | 0.00 | 89 | 1055.6 |
| 20260902004700 | 65 | 251 | 3.0 | 4.0 | 0.00 | 0.00 | 0.00 | 89 | 1055.6 |
| 20260902004652 | 65 | 252 | 3.0 | 4.0 | 0.00 | 0.00 | 0.00 | 89 | 1055.6 |
| 20260902004638 | 65 | 251 | 3.0 | 4.0 | 0.00 | 0.00 | 0.00 | 89 | 1055.6 |
| 20260902004356 | 65 | 251 | 3.0 | 4.0 | 0.00 | 0.00 | 0.00 | 89 | 1055.6 |
| 20260902004347 | 65 | 251 | 3.0 | 4.0 | 0.00 | 0.00 | 0.00 | 89 | 1055.6 |
| 20260902004339 | 65 | 251 | 3.0 | 4.0 | 0.00 | 0.00 | 0.00 | 89 | 1055.7 |
| 20260902003838 | 65 | 251 | 2.0 | 4.0 | 0.00 | 0.00 | 0.00 | 89 | 1055.7 |
| 20260902003827 | 65 | 252 | 2.0 | 4.0 | 0.00 | 0.00 | 0.00 | 89 | 1055.7 |
| 20260902003557 | 65 | 252 | 2.0 | 4.0 | 0.00 | 0.00 | 0.00 | 89 | 1055.7 |
| 20260902003235 | 65 | 252 | 2.0 | 4.0 | 0.00 | 0.00 | 0.00 | 89 | 1055.6 |
| 20260902003214 | 65 | 251 | 2.0 | 4.0 | 0.00 | 0.00 | 0.00 | 89 | 1055.6 |
| 20260902003135 | 65 | 252 | 2.0 | 4.0 | 0.00 | 0.00 | 0.00 | 89 | 1055.6 |
| 20260902003037 | 65 | 251 | 2.0 | 3.0 | 0.00 | 0.00 | 0.00 | 89 | 1055.6 |
| 20260902002936 | 65 | 252 | 2.0 | 3.0 | 0.00 | 0.00 | 0.00 | 89 | 1055.6 |
| 20260902002832 | 65 | 251 | 2.0 | 3.0 | 0.00 | 0.00 | 0.00 | 89 | 1055.6 |
| 20260902002716 | 65 | 251 | 2.0 | 3.0 | 0.00 | 0.00 | 0.00 | 89 | 1055.6 |
| 20260902002632 | 65 | 252 | 2.0 | 3.0 | 0.00 | 0.00 | 0.00 | 89 | 1055.6 |
| 20260902002532 | 65 | 252 | 2.0 | 3.0 | 0.00 | 0.00 | 0.00 | 89 | 1055.6 |
| 20260902002431 | 65 | 251 | 2.0 | 3.0 | 0.00 | 0.00 | 0.00 | 89 | 1055.6 |
| 20260902002332 | 65 | 251 | 2.0 | 3.0 | 0.00 | 0.00 | 0.00 | 89 | 1055.7 |
| 20260902002214 | 65 | 251 | 2.0 | 3.0 | 0.00 | 0.00 | 0.00 | 89 | 1055.7 |
| 20260902002131 | 65 | 251 | 2.0 | 3.0 | 0.00 | 0.00 | 0.00 | 89 | 1055.7 |
| 20260902002031 | 65 | 251 | 2.0 | 3.0 | 0.00 | 0.00 | 0.00 | 89 | 1055.7 |
| 20260902001929 | 66 | 251 | 2.0 | 3.0 | 0.00 | 0.00 | 0.00 | 89 | 1055.7 |
| 20260902001829 | 66 | 251 | 2.0 | 3.0 | 0.00 | 0.00 | 0.00 | 89 | 1055.7 |
| 20260902001715 | 66 | 251 | 2.0 | 3.0 | 0.00 | 0.00 | 0.00 | 89 | 1055.7 |
| 20260902001628 | 66 | 251 | 2.0 | 4.0 | 0.00 | 0.00 | 0.00 | 89 | 1055.7 |
| 20260902001522 | 66 | 252 | 2.0 | 4.0 | 0.00 | 0.00 | 0.00 | 89 | 1055.8 |
| 20260902001423 | 66 | 252 | 2.0 | 4.0 | 0.00 | 0.00 | 0.00 | 89 | 1055.7 |
| 20260902001321 | 66 | 251 | 2.0 | 4.0 | 0.00 | 0.00 | 0.00 | 89 | 1055.7 |
| 20260902001221 | 66 | 252 | 2.0 | 4.0 | 0.00 | 0.00 | 0.00 | 89 | 1055.7 |
| 20260902001215 | 66 | 251 | 2.0 | 4.0 | 0.00 | 0.00 | 0.00 | 89 | 1055.7 |
| 20260902001155 | 66 | 252 | 2.0 | 4.0 | 0.00 | 0.00 | 0.00 | 89 | 1055.7 |
| 20260902001147 | 66 | 251 | 2.0 | 4.0 | 0.00 | 0.00 | 0.00 | 89 | 1055.7 |
| 20260902000820 | 66 | 252 | 2.0 | 4.0 | 0.00 | 0.00 | 0.00 | 89 | 1055.8 |
| 20260902000715 | 66 | 251 | 2.0 | 4.0 | 0.00 | 0.00 | 0.00 | 89 | 1055.7 |
| 20260902000620 | 66 | 251 | 2.0 | 4.0 | 0.00 | 0.00 | 0.00 | 89 | 1055.7 |
| 20260902000521 | 66 | 252 | 2.0 | 4.0 | 0.00 | 0.00 | 0.00 | 89 | 1055.7 |
| 20260902000418 | 66 | 251 | 2.0 | 4.0 | 0.00 | 0.00 | 0.00 | 89 | 1055.7 |
| 20260902000322 | 66 | 251 | 2.0 | 4.0 | 0.00 | 0.00 | 0.00 | 89 | 1055.7 |
| 20260902000253 | 66 | 252 | 2.0 | 4.0 | 0.00 | 0.00 | 0.00 | 89 | 1055.7 |
| 20260902000243 | 66 | 252 | 2.0 | 4.0 | 0.00 | 0.00 | 0.00 | 89 | 1055.7 |
| 20260901235959 | 66 | 251 | 2.0 | 4.0 | 0.00 | 0.00 | 0.00 | 89 | 1055.7 |
| 20260901235946 | 66 | 252 | 2.0 | 4.0 | 0.00 | 0.00 | 0.00 | 89 | 1055.7 |
| 20260901235715 | 66 | 251 | 2.0 | 4.0 | 0.00 | 0.00 | 0.00 | 89 | 1055.7 |
| 20260901235618 | 66 | 251 | 3.0 | 4.0 | 0.00 | 0.00 | 0.00 | 89 | 1055.7 |
| 20260901235543 | 66 | 252 | 3.0 | 4.0 | 0.00 | 0.00 | 0.00 | 89 | 1055.7 |
| 20260901235534 | 66 | 251 | 3.0 | 4.0 | 0.00 | 0.00 | 0.00 | 89 | 1055.7 |
| 20260901235239 | 66 | 251 | 3.0 | 5.0 | 0.00 | 0.00 | 0.00 | 89 | 1055.6 |
| 20260901235229 | 66 | 251 | 3.0 | 5.0 | 0.00 | 0.00 | 0.00 | 89 | 1055.6 |
| 20260901234955 | 66 | 252 | 3.0 | 5.0 | 0.00 | 0.00 | 0.00 | 89 | 1055.6 |
| 20260901234946 | 66 | 253 | 3.0 | 5.0 | 0.00 | 0.00 | 0.00 | 89 | 1055.6 |
| 20260901234936 | 66 | 251 | 3.0 | 5.0 | 0.00 | 0.00 | 0.00 | 89 | 1055.6 |
| 20260901234709 | 66 | 251 | 2.0 | 5.0 | 0.00 | 0.00 | 0.00 | 89 | 1055.6 |
| 20260901234701 | 66 | 251 | 2.0 | 5.0 | 0.00 | 0.00 | 0.00 | 89 | 1055.6 |
| 20260901234652 | 66 | 251 | 2.0 | 5.0 | 0.00 | 0.00 | 0.00 | 89 | 1055.5 |
| 20260901234203 | 66 | 251 | 2.0 | 4.0 | 0.00 | 0.00 | 0.00 | 89 | 1055.5 |
| 20260901234101 | 66 | 251 | 2.0 | 4.0 | 0.00 | 0.00 | 0.00 | 89 | 1055.5 |
| 20260901234002 | 66 | 251 | 2.0 | 4.0 | 0.00 | 0.00 | 0.00 | 89 | 1055.5 |
| 20260901233902 | 66 | 251 | 2.0 | 4.0 | 0.00 | 0.00 | 0.00 | 89 | 1055.4 |
| 20260901233801 | 66 | 251 | 2.0 | 4.0 | 0.00 | 0.00 | 0.00 | 89 | 1055.5 |
| 20260901233705 | 66 | 251 | 2.0 | 4.0 | 0.00 | 0.00 | 0.00 | 89 | 1055.4 |
| 20260901233601 | 66 | 251 | 3.0 | 4.0 | 0.00 | 0.00 | 0.00 | 89 | 1055.4 |
| 20260901233502 | 66 | 251 | 3.0 | 4.0 | 0.00 | 0.00 | 0.00 | 89 | 1055.4 |
| 20260901233446 | 66 | 251 | 3.0 | 4.0 | 0.00 | 0.00 | 0.00 | 89 | 1055.4 |
| 20260901233431 | 66 | 251 | 3.0 | 4.0 | 0.00 | 0.00 | 0.00 | 88 | 1055.4 |
| 20260901233204 | 66 | 251 | 3.0 | 4.0 | 0.00 | 0.00 | 0.00 | 88 | 1055.4 |
| 20260901233127 | 66 | 251 | 3.0 | 4.0 | 0.00 | 0.00 | 0.00 | 88 | 1055.5 |
| 20260901233120 | 66 | 251 | 3.0 | 4.0 | 0.00 | 0.00 | 0.00 | 88 | 1055.4 |
| 20260901232756 | 66 | 251 | 3.0 | 4.0 | 0.00 | 0.00 | 0.00 | 88 | 1055.4 |
| 20260901232709 | 66 | 251 | 2.0 | 4.0 | 0.00 | 0.00 | 0.00 | 88 | 1055.4 |
| 20260901232659 | 66 | 251 | 2.0 | 4.0 | 0.00 | 0.00 | 0.00 | 88 | 1055.4 |
| 20260901232556 | 66 | 251 | 2.0 | 4.0 | 0.00 | 0.00 | 0.00 | 88 | 1055.4 |
| 20260901232457 | 66 | 251 | 2.0 | 4.0 | 0.00 | 0.00 | 0.00 | 88 | 1055.4 |
| 20260901232356 | 66 | 251 | 2.0 | 4.0 | 0.00 | 0.00 | 0.00 | 88 | 1055.4 |
| 20260901232233 | 66 | 251 | 2.0 | 4.0 | 0.00 | 0.00 | 0.00 | 88 | 1055.4 |
| 20260901232228 | 66 | 251 | 2.0 | 4.0 | 0.00 | 0.00 | 0.00 | 88 | 1055.4 |
| 20260901232217 | 66 | 251 | 2.0 | 4.0 | 0.00 | 0.00 | 0.00 | 88 | 1055.4 |
| 20260901231933 | 66 | 251 | 2.0 | 4.0 | 0.00 | 0.00 | 0.00 | 88 | 1055.4 |
| 20260901231920 | 66 | 251 | 2.0 | 4.0 | 0.00 | 0.00 | 0.00 | 88 | 1055.4 |
| 20260901231653 | 66 | 251 | 2.0 | 4.0 | 0.00 | 0.00 | 0.00 | 88 | 1055.4 |
| 20260901231548 | 66 | 251 | 2.0 | 4.0 | 0.00 | 0.00 | 0.00 | 88 | 1055.3 |
| 20260901231448 | 66 | 251 | 2.0 | 4.0 | 0.00 | 0.00 | 0.00 | 88 | 1055.3 |
| 20260901231348 | 66 | 251 | 2.0 | 4.0 | 0.00 | 0.00 | 0.00 | 88 | 1055.3 |
| 20260901231248 | 66 | 251 | 2.0 | 4.0 | 0.00 | 0.00 | 0.00 | 88 | 1055.4 |
| 20260901231205 | 66 | 251 | 2.0 | 4.0 | 0.00 | 0.00 | 0.00 | 88 | 1055.4 |
| 20260901231151 | 66 | 251 | 2.0 | 4.0 | 0.00 | 0.00 | 0.00 | 88 | 1055.4 |
| 20260901231119 | 66 | 251 | 2.0 | 4.0 | 0.00 | 0.00 | 0.00 | 88 | 1055.4 |
| 20260901231110 | 66 | 251 | 2.0 | 4.0 | 0.00 | 0.00 | 0.00 | 88 | 1055.4 |
| 20260901230742 | 66 | 251 | 2.0 | 4.0 | 0.00 | 0.00 | 0.00 | 88 | 1055.4 |
| 20260901230701 | 66 | 251 | 2.0 | 4.0 | 0.00 | 0.00 | 0.00 | 88 | 1055.5 |
| 20260901230642 | 66 | 251 | 2.0 | 4.0 | 0.00 | 0.00 | 0.00 | 88 | 1055.5 |
| 20260901230542 | 66 | 251 | 2.0 | 4.0 | 0.00 | 0.00 | 0.00 | 88 | 1055.4 |
| 20260901230515 | 66 | 251 | 2.0 | 4.0 | 0.00 | 0.00 | 0.00 | 88 | 1055.4 |
| 20260901230506 | 66 | 251 | 2.0 | 4.0 | 0.00 | 0.00 | 0.00 | 88 | 1055.4 |
| 20260901230451 | 66 | 251 | 2.0 | 3.0 | 0.00 | 0.00 | 0.00 | 88 | 1055.4 |
| 20260901230211 | 66 | 251 | 2.0 | 3.0 | 0.00 | 0.00 | 0.00 | 88 | 1055.4 |
| 20260901230203 | 67 | 251 | 2.0 | 3.0 | 0.00 | 0.00 | 0.00 | 88 | 1055.4 |
| 20260901225839 | 67 | 251 | 2.0 | 3.0 | 0.00 | 0.00 | 0.00 | 88 | 1055.4 |
| 20260901225738 | 67 | 251 | 2.0 | 3.0 | 0.00 | 0.00 | 0.00 | 88 | 1055.3 |
| 20260901225701 | 67 | 251 | 2.0 | 3.0 | 0.00 | 0.00 | 0.00 | 88 | 1055.3 |
| 20260901225636 | 67 | 251 | 2.0 | 3.0 | 0.00 | 0.00 | 0.00 | 88 | 1055.3 |
| 20260901225536 | 67 | 251 | 2.0 | 3.0 | 0.00 | 0.00 | 0.00 | 88 | 1055.4 |
| 20260901225444 | 67 | 251 | 2.0 | 4.0 | 0.00 | 0.00 | 0.00 | 88 | 1055.4 |
| 20260901225434 | 67 | 251 | 2.0 | 4.0 | 0.00 | 0.00 | 0.00 | 88 | 1055.4 |
| 20260901225419 | 67 | 251 | 3.0 | 5.0 | 0.00 | 0.00 | 0.00 | 88 | 1055.4 |
| 20260901225132 | 67 | 251 | 3.0 | 5.0 | 0.00 | 0.00 | 0.00 | 88 | 1055.4 |
| 20260901225031 | 67 | 251 | 3.0 | 5.0 | 0.00 | 0.00 | 0.00 | 88 | 1055.4 |
| 20260901224930 | 67 | 251 | 3.0 | 5.0 | 0.00 | 0.00 | 0.00 | 88 | 1055.4 |
| 20260901224829 | 67 | 251 | 3.0 | 5.0 | 0.00 | 0.00 | 0.00 | 88 | 1055.4 |
| 20260901224704 | 67 | 251 | 3.0 | 5.0 | 0.00 | 0.00 | 0.00 | 88 | 1055.4 |
| 20260901224629 | 67 | 251 | 3.0 | 5.0 | 0.00 | 0.00 | 0.00 | 88 | 1055.4 |
| 20260901224529 | 67 | 251 | 3.0 | 5.0 | 0.00 | 0.00 | 0.00 | 88 | 1055.3 |
| 20260901224505 | 67 | 251 | 3.0 | 5.0 | 0.00 | 0.00 | 0.00 | 88 | 1055.3 |
| 20260901224456 | 67 | 251 | 3.0 | 5.0 | 0.00 | 0.00 | 0.00 | 88 | 1055.4 |
| 20260901224204 | 67 | 249 | 3.0 | 5.0 | 0.00 | 0.00 | 0.00 | 88 | 1055.3 |
| 20260901224129 | 67 | 237 | 3.0 | 5.0 | 0.00 | 0.00 | 0.00 | 88 | 1055.3 |
| 20260901224053 | 67 | 233 | 2.0 | 4.0 | 0.00 | 0.00 | 0.00 | 88 | 1055.3 |
| 20260901224046 | 67 | 233 | 2.0 | 4.0 | 0.00 | 0.00 | 0.00 | 88 | 1055.3 |
| 20260901224031 | 67 | 233 | 2.0 | 4.0 | 0.00 | 0.00 | 0.00 | 88 | 1055.3 |
| 20260901224014 | 67 | 233 | 2.0 | 4.0 | 0.00 | 0.00 | 0.00 | 88 | 1055.3 |
| 20260901223749 | 67 | 233 | 2.0 | 4.0 | 0.00 | 0.00 | 0.00 | 88 | 1055.3 |
| 20260901223426 | 67 | 233 | 1.0 | 4.0 | 0.00 | 0.00 | 0.00 | 88 | 1055.2 |
| 20260901223326 | 67 | 232 | 1.0 | 4.0 | 0.00 | 0.00 | 0.00 | 88 | 1055.2 |
| 20260901223201 | 67 | 232 | 1.0 | 3.0 | 0.00 | 0.00 | 0.00 | 88 | 1055.2 |
| 20260901223124 | 67 | 232 | 1.0 | 3.0 | 0.00 | 0.00 | 0.00 | 88 | 1055.2 |
| 20260901223022 | 67 | 233 | 1.0 | 3.0 | 0.00 | 0.00 | 0.00 | 88 | 1055.2 |
| 20260901222922 | 67 | 232 | 1.0 | 3.0 | 0.00 | 0.00 | 0.00 | 87 | 1055.2 |
| 20260901222858 | 67 | 232 | 1.0 | 3.0 | 0.00 | 0.00 | 0.00 | 87 | 1055.1 |
| 20260901222848 | 67 | 232 | 1.0 | 3.0 | 0.00 | 0.00 | 0.00 | 87 | 1055.1 |
| 20260901222843 | 67 | 232 | 2.0 | 3.0 | 0.00 | 0.00 | 0.00 | 87 | 1055.1 |
| 20260901222518 | 67 | 233 | 2.0 | 3.0 | 0.00 | 0.00 | 0.00 | 87 | 1055.1 |
| 20260901222418 | 67 | 233 | 2.0 | 3.0 | 0.00 | 0.00 | 0.00 | 87 | 1055.1 |
| 20260901222318 | 67 | 232 | 2.0 | 3.0 | 0.00 | 0.00 | 0.00 | 87 | 1055.1 |
| 20260901222218 | 67 | 233 | 2.0 | 3.0 | 0.00 | 0.00 | 0.00 | 87 | 1055.1 |
| 20260901222201 | 67 | 233 | 2.0 | 3.0 | 0.00 | 0.00 | 0.00 | 87 | 1055.0 |
| 20260901222119 | 67 | 233 | 2.0 | 3.0 | 0.00 | 0.00 | 0.00 | 87 | 1055.0 |
| 20260901222018 | 67 | 232 | 2.0 | 2.0 | 0.00 | 0.00 | 0.00 | 87 | 1055.1 |
| 20260901221914 | 67 | 232 | 1.0 | 3.0 | 0.00 | 0.00 | 0.00 | 87 | 1055.1 |
| 20260901221812 | 67 | 232 | 2.0 | 3.0 | 0.00 | 0.00 | 0.00 | 87 | 1055.0 |
| 20260901221746 | 67 | 232 | 2.0 | 3.0 | 0.00 | 0.00 | 0.00 | 87 | 1055.0 |
| 20260901221735 | 67 | 233 | 2.0 | 3.0 | 0.00 | 0.00 | 0.00 | 87 | 1055.0 |
| 20260901221406 | 67 | 233 | 2.0 | 3.0 | 0.00 | 0.00 | 0.00 | 87 | 1055.0 |
| 20260901221306 | 67 | 232 | 2.0 | 3.0 | 0.00 | 0.00 | 0.00 | 87 | 1055.0 |
| 20260901221243 | 67 | 232 | 2.0 | 3.0 | 0.00 | 0.00 | 0.00 | 87 | 1055.0 |
| 20260901221239 | 67 | 233 | 2.0 | 3.0 | 0.00 | 0.00 | 0.00 | 87 | 1055.0 |
| 20260901221228 | 67 | 232 | 2.0 | 3.0 | 0.00 | 0.00 | 0.00 | 88 | 1055.1 |
| 20260901220902 | 67 | 231 | 2.0 | 3.0 | 0.00 | 0.00 | 0.00 | 87 | 1055.0 |
| 20260901220802 | 67 | 233 | 2.0 | 3.0 | 0.00 | 0.00 | 0.00 | 87 | 1055.0 |
| 20260901220701 | 67 | 232 | 2.0 | 3.0 | 0.00 | 0.00 | 0.00 | 87 | 1055.0 |
| 20260901220602 | 67 | 232 | 2.0 | 3.0 | 0.00 | 0.00 | 0.00 | 87 | 1055.0 |
| 20260901220501 | 67 | 232 | 2.0 | 3.0 | 0.00 | 0.00 | 0.00 | 87 | 1055.0 |
| 20260901220401 | 67 | 233 | 2.0 | 4.0 | 0.00 | 0.00 | 0.00 | 87 | 1054.9 |
| 20260901220341 | 67 | 234 | 2.0 | 4.0 | 0.00 | 0.00 | 0.00 | 87 | 1054.9 |
| 20260901220327 | 67 | 233 | 2.0 | 4.0 | 0.00 | 0.00 | 0.00 | 87 | 1054.9 |
| 20260901220316 | 67 | 232 | 2.0 | 4.0 | 0.00 | 0.00 | 0.00 | 87 | 1054.9 |
| 20260901220301 | 67 | 232 | 2.0 | 4.0 | 0.00 | 0.00 | 0.00 | 87 | 1054.9 |
| 20260901220251 | 67 | 233 | 2.0 | 4.0 | 0.00 | 0.00 | 0.00 | 87 | 1054.9 |
| 20260901220242 | 67 | 232 | 2.0 | 4.0 | 0.00 | 0.00 | 0.00 | 87 | 1054.9 |
| 20260901220224 | 67 | 233 | 2.0 | 4.0 | 0.00 | 0.00 | 0.00 | 87 | 1054.9 |
| 20260901215959 | 67 | 232 | 2.0 | 4.0 | 0.00 | 0.00 | 0.00 | 87 | 1054.9 |
| 20260901215951 | 67 | 232 | 2.0 | 4.0 | 0.00 | 0.00 | 0.00 | 87 | 1054.9 |
| 20260901215943 | 67 | 232 | 2.0 | 3.0 | 0.00 | 0.00 | 0.00 | 87 | 1054.9 |
| 20260901215932 | 67 | 232 | 2.0 | 3.0 | 0.00 | 0.00 | 0.00 | 87 | 1054.9 |
| 20260901215915 | 67 | 233 | 2.0 | 3.0 | 0.00 | 0.00 | 0.00 | 87 | 1054.9 |
| 20260901215649 | 67 | 233 | 2.0 | 3.0 | 0.00 | 0.00 | 0.00 | 87 | 1054.9 |
| 20260901215422 | 67 | 233 | 2.0 | 3.0 | 0.00 | 0.00 | 0.00 | 87 | 1054.9 |
| 20260901215146 | 68 | 232 | 2.0 | 3.0 | 0.00 | 0.00 | 0.00 | 87 | 1055.0 |
| 20260901214651 | 68 | 233 | 2.0 | 4.0 | 0.00 | 0.00 | 0.00 | 87 | 1055.0 |
| 20260901214414 | 68 | 232 | 2.0 | 4.0 | 0.00 | 0.00 | 0.00 | 87 | 1055.0 |
| 20260901214101 | 68 | 232 | 2.0 | 4.0 | 0.00 | 0.00 | 0.00 | 87 | 1054.9 |
| 20260901214037 | 68 | 233 | 2.0 | 4.0 | 0.00 | 0.00 | 0.00 | 87 | 1054.9 |
| 20260901214029 | 68 | 232 | 2.0 | 4.0 | 0.00 | 0.00 | 0.00 | 87 | 1054.9 |
| 20260901213700 | 68 | 232 | 2.0 | 4.0 | 0.00 | 0.00 | 0.00 | 87 | 1054.9 |
| 20260901213601 | 68 | 232 | 2.0 | 4.0 | 0.00 | 0.00 | 0.00 | 87 | 1054.9 |
| 20260901213526 | 68 | 232 | 2.0 | 4.0 | 0.00 | 0.00 | 0.00 | 87 | 1054.8 |
| 20260901213518 | 68 | 232 | 2.0 | 4.0 | 0.00 | 0.00 | 0.00 | 87 | 1054.8 |
| 20260901213504 | 68 | 232 | 2.0 | 4.0 | 0.00 | 0.00 | 0.00 | 87 | 1054.8 |
| 20260901213241 | 68 | 232 | 2.0 | 4.0 | 0.00 | 0.00 | 0.00 | 87 | 1054.8 |
| 20260901213230 | 68 | 232 | 2.0 | 4.0 | 0.00 | 0.00 | 0.00 | 87 | 1054.8 |
| 20260901213220 | 68 | 232 | 2.0 | 4.0 | 0.00 | 0.00 | 0.00 | 87 | 1054.8 |
| 20260901213211 | 68 | 232 | 2.0 | 4.0 | 0.00 | 0.00 | 0.00 | 87 | 1054.8 |
| 20260901213157 | 68 | 232 | 2.0 | 4.0 | 0.00 | 0.00 | 0.00 | 87 | 1054.8 |
| 20260901212705 | 68 | 232 | 1.0 | 4.0 | 0.00 | 0.00 | 0.00 | 87 | 1054.8 |
| 20260901212653 | 68 | 232 | 1.0 | 4.0 | 0.00 | 0.00 | 0.00 | 86 | 1054.8 |
| 20260901212644 | 68 | 232 | 1.0 | 4.0 | 0.00 | 0.00 | 0.00 | 86 | 1054.8 |
| 20260901212410 | 68 | 232 | 1.0 | 4.0 | 0.00 | 0.00 | 0.00 | 86 | 1054.8 |
| 20260901212046 | 68 | 232 | 1.0 | 4.0 | 0.00 | 0.00 | 0.00 | 86 | 1054.9 |
| 20260901212011 | 68 | 233 | 1.0 | 3.0 | 0.00 | 0.00 | 0.00 | 86 | 1054.9 |
| 20260901212003 | 68 | 232 | 1.0 | 3.0 | 0.00 | 0.00 | 0.00 | 86 | 1054.8 |
| 20260901211933 | 68 | 232 | 1.0 | 3.0 | 0.00 | 0.00 | 0.00 | 86 | 1054.8 |
| 20260901211928 | 68 | 232 | 1.0 | 3.0 | 0.00 | 0.00 | 0.00 | 86 | 1054.8 |
| 20260901211351 | 68 | 232 | 2.0 | 3.0 | 0.00 | 0.00 | 0.00 | 86 | 1054.8 |
| 20260901211343 | 68 | 233 | 2.0 | 3.0 | 0.00 | 0.00 | 0.00 | 86 | 1054.9 |
| 20260901211333 | 68 | 231 | 2.0 | 3.0 | 0.00 | 0.00 | 0.00 | 86 | 1054.9 |
| 20260901211324 | 68 | 233 | 2.0 | 3.0 | 0.00 | 0.00 | 0.00 | 86 | 1054.9 |
| 20260901211056 | 69 | 232 | 2.0 | 3.0 | 0.00 | 0.00 | 0.00 | 86 | 1054.8 |
| 20260901210734 | 69 | 232 | 2.0 | 3.0 | 0.00 | 0.00 | 0.00 | 86 | 1054.8 |
| 20260901210636 | 69 | 232 | 2.0 | 3.0 | 0.00 | 0.00 | 0.00 | 86 | 1054.7 |
| 20260901210533 | 69 | 232 | 2.0 | 3.0 | 0.00 | 0.00 | 0.00 | 86 | 1054.7 |
| 20260901210434 | 69 | 231 | 2.0 | 3.0 | 0.00 | 0.00 | 0.00 | 86 | 1054.8 |
| 20260901210425 | 69 | 232 | 2.0 | 3.0 | 0.00 | 0.00 | 0.00 | 85 | 1054.7 |
| 20260901210408 | 69 | 232 | 2.0 | 3.0 | 0.00 | 0.00 | 0.00 | 85 | 1054.7 |
| 20260901210134 | 69 | 233 | 2.0 | 3.0 | 0.00 | 0.00 | 0.00 | 86 | 1054.7 |
| 20260901210028 | 69 | 232 | 2.0 | 3.0 | 0.00 | 0.00 | 0.00 | 86 | 1054.7 |
| 20260901210011 | 69 | 232 | 2.0 | 3.0 | 0.00 | 0.00 | 0.00 | 86 | 1054.7 |
| 20260901210003 | 69 | 232 | 2.0 | 3.0 | 0.00 | 0.00 | 0.00 | 86 | 1054.7 |
| 20260901205948 | 69 | 232 | 2.0 | 3.0 | 0.00 | 0.00 | 0.00 | 86 | 1054.7 |
| 20260901205725 | 69 | 232 | 2.0 | 3.0 | 0.00 | 0.00 | 0.00 | 85 | 1054.6 |
| 20260901205711 | 69 | 232 | 2.0 | 3.0 | 0.00 | 0.00 | 0.00 | 85 | 1054.6 |
| 20260901205702 | 69 | 232 | 2.0 | 3.0 | 0.00 | 0.00 | 0.00 | 85 | 1054.6 |
| 20260901205425 | 69 | 232 | 2.0 | 3.0 | 0.00 | 0.00 | 0.00 | 85 | 1054.6 |
| 20260901205149 | 69 | 232 | 2.0 | 3.0 | 0.00 | 0.00 | 0.00 | 85 | 1054.6 |
| 20260901205138 | 69 | 232 | 2.0 | 3.0 | 0.00 | 0.00 | 0.00 | 85 | 1054.6 |
| 20260901205131 | 69 | 232 | 2.0 | 3.0 | 0.00 | 0.00 | 0.00 | 85 | 1054.6 |
| 20260901205120 | 69 | 232 | 2.0 | 3.0 | 0.00 | 0.00 | 0.00 | 85 | 1054.6 |
| 20260901204625 | 69 | 232 | 2.0 | 3.0 | 0.00 | 0.00 | 0.00 | 85 | 1054.6 |
| 20260901204523 | 69 | 233 | 2.0 | 3.0 | 0.00 | 0.00 | 0.00 | 85 | 1054.6 |
| 20260901204423 | 69 | 232 | 2.0 | 3.0 | 0.00 | 0.00 | 0.00 | 85 | 1054.6 |
| 20260901204321 | 69 | 232 | 2.0 | 3.0 | 0.00 | 0.00 | 0.00 | 85 | 1054.6 |
| 20260901204225 | 69 | 232 | 2.0 | 3.0 | 0.00 | 0.00 | 0.00 | 85 | 1054.6 |
| 20260901204212 | 69 | 232 | 2.0 | 3.0 | 0.00 | 0.00 | 0.00 | 85 | 1054.6 |
| 20260901204201 | 69 | 231 | 2.0 | 3.0 | 0.00 | 0.00 | 0.00 | 85 | 1054.6 |
| 20260901204151 | 69 | 232 | 2.0 | 3.0 | 0.00 | 0.00 | 0.00 | 85 | 1054.6 |
| 20260901204141 | 69 | 232 | 2.0 | 3.0 | 0.00 | 0.00 | 0.00 | 85 | 1054.6 |
| 20260901204125 | 69 | 232 | 2.0 | 3.0 | 0.00 | 0.00 | 0.00 | 85 | 1054.6 |
| 20260901203619 | 69 | 232 | 2.0 | 3.0 | 0.00 | 0.00 | 0.00 | 85 | 1054.5 |
| 20260901203517 | 69 | 232 | 2.0 | 3.0 | 0.00 | 0.00 | 0.00 | 85 | 1054.6 |
| 20260901203420 | 69 | 232 | 2.0 | 3.0 | 0.00 | 0.00 | 0.00 | 85 | 1054.6 |
| 20260901203409 | 69 | 232 | 2.0 | 4.0 | 0.00 | 0.00 | 0.00 | 85 | 1054.6 |
| 20260901203354 | 70 | 232 | 2.0 | 4.0 | 0.00 | 0.00 | 0.00 | 85 | 1054.5 |
| 20260901203114 | 70 | 232 | 2.0 | 4.0 | 0.00 | 0.00 | 0.00 | 85 | 1054.6 |
| 20260901203015 | 70 | 233 | 2.0 | 4.0 | 0.00 | 0.00 | 0.00 | 84 | 1054.5 |
| 20260901202913 | 70 | 232 | 2.0 | 4.0 | 0.00 | 0.00 | 0.00 | 84 | 1054.5 |
| 20260901202813 | 70 | 233 | 2.0 | 4.0 | 0.00 | 0.00 | 0.00 | 84 | 1054.5 |
| 20260901202712 | 70 | 232 | 2.0 | 4.0 | 0.00 | 0.00 | 0.00 | 84 | 1054.5 |
| 20260901202613 | 70 | 232 | 2.0 | 4.0 | 0.00 | 0.00 | 0.00 | 84 | 1054.5 |
| 20260901202512 | 70 | 231 | 2.0 | 4.0 | 0.00 | 0.00 | 0.00 | 84 | 1054.4 |
| 20260901202428 | 70 | 232 | 2.0 | 4.0 | 0.00 | 0.00 | 0.00 | 84 | 1054.4 |
| 20260901202412 | 70 | 232 | 2.0 | 4.0 | 0.00 | 0.00 | 0.00 | 84 | 1054.4 |
| 20260901202358 | 70 | 232 | 2.0 | 4.0 | 0.00 | 0.00 | 0.00 | 84 | 1054.4 |
| 20260901202108 | 70 | 231 | 2.0 | 4.0 | 0.00 | 0.00 | 0.00 | 84 | 1054.4 |
| 20260901202008 | 70 | 232 | 2.0 | 4.0 | 0.00 | 0.00 | 0.00 | 84 | 1054.4 |
| 20260901201909 | 70 | 232 | 2.0 | 4.0 | 0.00 | 0.00 | 0.00 | 84 | 1054.4 |
| 20260901201807 | 70 | 231 | 2.0 | 4.0 | 0.00 | 0.00 | 0.00 | 84 | 1054.4 |
| 20260901201706 | 70 | 231 | 2.0 | 4.0 | 0.00 | 0.00 | 0.00 | 84 | 1054.4 |
| 20260901201640 | 70 | 232 | 2.0 | 4.0 | 0.00 | 0.00 | 0.00 | 84 | 1054.4 |
| 20260901201633 | 70 | 231 | 3.0 | 4.0 | 0.00 | 0.00 | 0.00 | 84 | 1054.4 |
| 20260901201625 | 70 | 232 | 3.0 | 4.0 | 0.00 | 0.00 | 0.00 | 84 | 1054.4 |
| 20260901201341 | 70 | 231 | 2.0 | 4.0 | 0.00 | 0.00 | 0.00 | 84 | 1054.4 |
| 20260901201330 | 70 | 231 | 2.0 | 4.0 | 0.00 | 0.00 | 0.00 | 83 | 1054.4 |
| 20260901201319 | 70 | 231 | 2.0 | 4.0 | 0.00 | 0.00 | 0.00 | 83 | 1054.4 |
| 20260901201001 | 70 | 231 | 2.0 | 4.0 | 0.00 | 0.00 | 0.00 | 83 | 1054.3 |
| 20260901200901 | 71 | 231 | 2.0 | 4.0 | 0.00 | 0.00 | 0.00 | 83 | 1054.3 |
| 20260901200800 | 71 | 231 | 1.0 | 4.0 | 0.00 | 0.00 | 0.00 | 83 | 1054.3 |
| 20260901200701 | 71 | 231 | 1.0 | 4.0 | 0.00 | 0.00 | 0.00 | 83 | 1054.3 |
| 20260901200636 | 71 | 212 | 1.0 | 4.0 | 0.00 | 0.00 | 0.00 | 83 | 1054.3 |
| 20260901200601 | 71 | 211 | 1.0 | 4.0 | 0.00 | 0.00 | 0.00 | 83 | 1054.3 |
| 20260901200501 | 71 | 202 | 0.0 | 3.0 | 0.00 | 0.00 | 0.00 | 83 | 1054.3 |
| 20260901200401 | 71 | 202 | 1.0 | 2.0 | 0.00 | 0.00 | 0.00 | 83 | 1054.2 |
| 20260901200301 | 71 | 201 | 1.0 | 3.0 | 0.00 | 0.00 | 0.00 | 83 | 1054.2 |
| 20260901200201 | 71 | 202 | 1.0 | 3.0 | 0.00 | 0.00 | 0.00 | 83 | 1054.3 |
| 20260901200137 | 71 | 202 | 1.0 | 4.0 | 0.00 | 0.00 | 0.00 | 83 | 1054.3 |
| 20260901200101 | 71 | 202 | 1.0 | 4.0 | 0.00 | 0.00 | 0.00 | 83 | 1054.2 |
| 20260901200001 | 71 | 202 | 1.0 | 4.0 | 0.00 | 0.00 | 0.00 | 82 | 1054.2 |
| 20260901195936 | 71 | 202 | 1.0 | 4.0 | 0.00 | 0.00 | 0.00 | 82 | 1054.2 |
| 20260901195928 | 71 | 202 | 1.0 | 4.0 | 0.00 | 0.00 | 0.00 | 82 | 1054.2 |
| 20260901195637 | 71 | 204 | 2.0 | 4.0 | 0.00 | 0.00 | 0.00 | 82 | 1054.2 |
| 20260901195601 | 71 | 202 | 2.0 | 4.0 | 0.00 | 0.00 | 0.00 | 82 | 1054.2 |
| 20260901195501 | 71 | 202 | 2.0 | 4.0 | 0.00 | 0.00 | 0.00 | 82 | 1054.1 |
| 20260901195417 | 71 | 201 | 1.0 | 4.0 | 0.00 | 0.00 | 0.00 | 82 | 1054.1 |
| 20260901195406 | 71 | 202 | 1.0 | 4.0 | 0.00 | 0.00 | 0.00 | 82 | 1054.1 |
| 20260901195353 | 71 | 201 | 1.0 | 4.0 | 0.00 | 0.00 | 0.00 | 82 | 1054.1 |
| 20260901195349 | 71 | 201 | 1.0 | 3.0 | 0.00 | 0.00 | 0.00 | 82 | 1054.1 |
| 20260901195338 | 71 | 201 | 1.0 | 3.0 | 0.00 | 0.00 | 0.00 | 82 | 1054.0 |
| 20260901195329 | 71 | 203 | 1.0 | 3.0 | 0.00 | 0.00 | 0.00 | 82 | 1054.0 |
| 20260901195316 | 72 | 201 | 0.0 | 3.0 | 0.00 | 0.00 | 0.00 | 82 | 1054.0 |
| 20260901194829 | 72 | 201 | 0.0 | 3.0 | 0.00 | 0.00 | 0.00 | 81 | 1054.0 |
| 20260901194506 | 72 | 201 | 0.0 | 0.0 | 0.00 | 0.00 | 0.00 | 81 | 1054.0 |
| 20260901194456 | 72 | 201 | 0.0 | 0.0 | 0.00 | 0.00 | 0.00 | 81 | 1054.0 |
| 20260901194443 | 72 | 201 | 0.0 | 0.0 | 0.00 | 0.00 | 0.00 | 81 | 1054.1 |
| 20260901194431 | 72 | 201 | 0.0 | 0.0 | 0.00 | 0.00 | 0.00 | 81 | 1054.1 |
| 20260901194207 | 72 | 201 | 0.0 | 0.0 | 0.00 | 0.00 | 0.00 | 81 | 1054.1 |
| 20260901194157 | 72 | 201 | 0.0 | 0.0 | 0.00 | 0.00 | 0.00 | 81 | 1054.1 |
| 20260901193927 | 72 | 201 | 0.0 | 2.0 | 0.00 | 0.00 | 0.00 | 80 | 1054.1 |
| 20260901193635 | 72 | 201 | 1.0 | 3.0 | 0.00 | 0.00 | 0.00 | 80 | 1054.0 |
| 20260901193600 | 72 | 201 | 1.0 | 3.0 | 0.00 | 0.00 | 0.00 | 80 | 1054.0 |
| 20260901193501 | 73 | 201 | 1.0 | 3.0 | 0.00 | 0.00 | 0.00 | 80 | 1054.0 |
| 20260901193400 | 73 | 201 | 1.0 | 3.0 | 0.00 | 0.00 | 0.00 | 80 | 1054.0 |
| 20260901193301 | 73 | 201 | 1.0 | 3.0 | 0.00 | 0.00 | 0.00 | 80 | 1054.0 |
| 20260901193201 | 73 | 201 | 1.0 | 3.0 | 0.00 | 0.00 | 0.00 | 80 | 1054.0 |
| 20260901193131 | 73 | 201 | 1.0 | 3.0 | 0.00 | 0.00 | 0.00 | 80 | 1054.0 |
| 20260901193100 | 73 | 201 | 1.0 | 3.0 | 0.00 | 0.00 | 0.00 | 80 | 1054.0 |
| 20260901193000 | 73 | 201 | 1.0 | 3.0 | 0.00 | 0.00 | 0.00 | 80 | 1054.0 |
| 20260901192901 | 73 | 202 | 1.0 | 3.0 | 0.00 | 0.00 | 0.00 | 80 | 1054.0 |
| 20260901192800 | 73 | 201 | 1.0 | 3.0 | 0.00 | 0.00 | 0.00 | 79 | 1053.9 |
| 20260901192701 | 73 | 201 | 1.0 | 3.0 | 0.00 | 0.00 | 0.00 | 79 | 1053.9 |
| 20260901192600 | 73 | 201 | 1.0 | 3.0 | 0.00 | 0.00 | 0.00 | 79 | 1053.9 |
| 20260901192500 | 73 | 201 | 1.0 | 3.0 | 0.00 | 0.00 | 0.00 | 79 | 1053.8 |
| 20260901192401 | 73 | 201 | 2.0 | 3.0 | 0.00 | 0.00 | 0.00 | 79 | 1053.8 |
| 20260901192300 | 73 | 201 | 1.0 | 3.0 | 0.00 | 0.00 | 0.00 | 79 | 1053.8 |
| 20260901192200 | 73 | 201 | 1.0 | 3.0 | 0.00 | 0.00 | 0.00 | 79 | 1053.8 |
| 20260901192132 | 73 | 201 | 1.0 | 3.0 | 0.00 | 0.00 | 0.00 | 79 | 1053.8 |
| 20260901192100 | 74 | 201 | 1.0 | 3.0 | 0.00 | 0.00 | 0.00 | 78 | 1053.8 |
| 20260901192005 | 74 | 201 | 1.0 | 3.0 | 0.00 | 0.00 | 0.00 | 78 | 1053.8 |
| 20260901191956 | 74 | 201 | 1.0 | 3.0 | 0.00 | 0.00 | 0.00 | 78 | 1053.8 |
| 20260901191938 | 74 | 201 | 1.0 | 3.0 | 0.00 | 0.00 | 0.00 | 78 | 1053.8 |
| 20260901191713 | 74 | 201 | 1.0 | 3.0 | 0.00 | 0.00 | 0.00 | 78 | 1053.9 |
| 20260901191704 | 74 | 201 | 1.0 | 3.0 | 0.00 | 0.00 | 0.00 | 78 | 1053.9 |
| 20260901191651 | 74 | 201 | 1.0 | 3.0 | 0.00 | 0.00 | 0.00 | 78 | 1053.9 |
| 20260901191422 | 74 | 201 | 1.0 | 2.0 | 0.00 | 0.00 | 0.00 | 78 | 1053.8 |
| 20260901191131 | 74 | 201 | 1.0 | 3.0 | 0.00 | 0.00 | 0.00 | 78 | 1053.8 |
| 20260901191056 | 74 | 201 | 1.0 | 3.0 | 0.00 | 0.00 | 0.00 | 78 | 1053.8 |
| 20260901190956 | 74 | 201 | 1.0 | 4.0 | 0.00 | 0.00 | 0.00 | 78 | 1053.7 |
| 20260901190857 | 74 | 201 | 1.0 | 4.0 | 0.00 | 0.00 | 0.00 | 78 | 1053.7 |
| 20260901190757 | 74 | 201 | 1.0 | 4.0 | 0.00 | 0.00 | 0.00 | 78 | 1053.8 |
| 20260901190631 | 74 | 201 | 1.0 | 4.0 | 0.00 | 0.00 | 0.00 | 77 | 1053.7 |
| 20260901190556 | 74 | 201 | 1.0 | 4.0 | 0.00 | 0.00 | 0.00 | 77 | 1053.8 |
| 20260901190543 | 74 | 201 | 1.0 | 4.0 | 0.00 | 0.00 | 0.00 | 77 | 1053.8 |
| 20260901190535 | 74 | 201 | 2.0 | 4.0 | 0.00 | 0.00 | 0.00 | 77 | 1053.7 |
| 20260901190140 | 75 | 201 | 2.0 | 4.0 | 0.00 | 0.00 | 0.00 | 77 | 1053.7 |
| 20260901190129 | 75 | 200 | 2.0 | 4.0 | 0.00 | 0.00 | 0.00 | 77 | 1053.8 |
| 20260901190121 | 75 | 200 | 1.0 | 4.0 | 0.00 | 0.00 | 0.00 | 77 | 1053.7 |
| 20260901190108 | 75 | 201 | 1.0 | 4.0 | 0.00 | 0.00 | 0.00 | 77 | 1053.8 |
| 20260901190045 | 75 | 201 | 1.0 | 3.0 | 0.00 | 0.00 | 0.00 | 76 | 1053.7 |
| 20260901185821 | 75 | 200 | 1.0 | 3.0 | 0.00 | 0.00 | 0.00 | 76 | 1053.7 |
| 20260901185456 | 75 | 200 | 1.0 | 3.0 | 0.00 | 0.00 | 0.00 | 76 | 1053.7 |
| 20260901185357 | 75 | 199 | 0.0 | 3.0 | 0.00 | 0.00 | 0.00 | 76 | 1053.7 |
| 20260901185256 | 75 | 194 | 0.0 | 3.0 | 0.00 | 0.00 | 0.00 | 76 | 1053.7 |
| 20260901185147 | 76 | 193 | 0.0 | 2.0 | 0.00 | 0.00 | 0.00 | 76 | 1053.7 |
| 20260901185138 | 76 | 193 | 0.0 | 2.0 | 0.00 | 0.00 | 0.00 | 76 | 1053.6 |
| 20260901185127 | 76 | 193 | 0.0 | 2.0 | 0.00 | 0.00 | 0.00 | 75 | 1053.6 |
| 20260901184756 | 76 | 193 | 0.0 | 2.0 | 0.00 | 0.00 | 0.00 | 75 | 1053.5 |
| 20260901184632 | 76 | 193 | 0.0 | 2.0 | 0.00 | 0.00 | 0.00 | 75 | 1053.5 |
| 20260901184557 | 76 | 193 | 0.0 | 2.0 | 0.00 | 0.00 | 0.00 | 75 | 1053.5 |
| 20260901184457 | 76 | 193 | 0.0 | 2.0 | 0.00 | 0.00 | 0.00 | 75 | 1053.5 |
| 20260901184352 | 76 | 193 | 0.0 | 3.0 | 0.00 | 0.00 | 0.00 | 74 | 1053.5 |
| 20260901184253 | 76 | 193 | 0.0 | 3.0 | 0.00 | 0.00 | 0.00 | 74 | 1053.5 |
| 20260901184131 | 76 | 193 | 0.0 | 3.0 | 0.00 | 0.00 | 0.00 | 75 | 1053.5 |
| 20260901184052 | 76 | 193 | 0.0 | 3.0 | 0.00 | 0.00 | 0.00 | 74 | 1053.5 |
| 20260901184029 | 76 | 193 | 0.0 | 3.0 | 0.00 | 0.00 | 0.00 | 74 | 1053.5 |
| 20260901184021 | 76 | 193 | 0.0 | 3.0 | 0.00 | 0.00 | 0.00 | 74 | 1053.5 |
| 20260901183625 | 76 | 193 | 0.0 | 3.0 | 0.00 | 0.00 | 0.00 | 74 | 1053.5 |
| 20260901183553 | 76 | 194 | 0.0 | 3.0 | 0.00 | 0.00 | 0.00 | 74 | 1053.5 |
| 20260901183453 | 76 | 193 | 0.0 | 3.0 | 0.00 | 0.00 | 0.00 | 74 | 1053.4 |
| 20260901183352 | 76 | 193 | 0.0 | 3.0 | 0.00 | 0.00 | 0.00 | 74 | 1053.5 |
| 20260901183252 | 77 | 193 | 0.0 | 1.0 | 0.00 | 0.00 | 0.00 | 74 | 1053.5 |
| 20260901183125 | 77 | 193 | 0.0 | 1.0 | 0.00 | 0.00 | 0.00 | 74 | 1053.5 |
| 20260901183053 | 77 | 193 | 0.0 | 1.0 | 0.00 | 0.00 | 0.00 | 74 | 1053.5 |
| 20260901183031 | 77 | 193 | 0.0 | 1.0 | 0.00 | 0.00 | 0.00 | 74 | 1053.5 |
| 20260901183022 | 77 | 193 | 0.0 | 1.0 | 0.00 | 0.00 | 0.00 | 74 | 1053.4 |
| 20260901182653 | 77 | 193 | 0.0 | 1.0 | 0.00 | 0.00 | 0.00 | 73 | 1053.4 |
| 20260901182625 | 77 | 193 | 0.0 | 0.0 | 0.00 | 0.00 | 0.00 | 73 | 1053.4 |
| 20260901182553 | 77 | 193 | 0.0 | 0.0 | 0.00 | 0.00 | 0.00 | 73 | 1053.4 |
| 20260901182523 | 77 | 193 | 0.0 | 0.0 | 0.00 | 0.00 | 0.00 | 73 | 1053.4 |
| 20260901182515 | 77 | 193 | 0.0 | 0.0 | 0.00 | 0.00 | 0.00 | 73 | 1053.4 |
| 20260901182125 | 77 | 193 | 0.0 | 0.0 | 0.00 | 0.00 | 0.00 | 73 | 1053.3 |
| 20260901182052 | 77 | 194 | 0.0 | 0.0 | 0.00 | 0.00 | 0.00 | 72 | 1053.3 |
| 20260901181953 | 77 | 193 | 0.0 | 0.0 | 0.00 | 0.00 | 0.00 | 72 | 1053.3 |
| 20260901181853 | 78 | 193 | 0.0 | 0.0 | 0.00 | 0.00 | 0.00 | 72 | 1053.2 |
| 20260901181744 | 78 | 193 | 0.0 | 0.0 | 0.00 | 0.00 | 0.00 | 72 | 1053.2 |
| 20260901181714 | 78 | 193 | 0.0 | 2.0 | 0.00 | 0.00 | 0.00 | 72 | 1053.2 |
| 20260901181707 | 78 | 193 | 0.0 | 2.0 | 0.00 | 0.00 | 0.00 | 72 | 1053.2 |
| 20260901181412 | 78 | 193 | 0.0 | 2.0 | 0.00 | 0.00 | 0.00 | 71 | 1053.2 |
| 20260901181403 | 78 | 193 | 0.0 | 2.0 | 0.00 | 0.00 | 0.00 | 71 | 1053.2 |
| 20260901181342 | 78 | 193 | 1.0 | 3.0 | 0.00 | 0.00 | 0.00 | 71 | 1053.2 |
| 20260901181041 | 78 | 193 | 1.0 | 3.0 | 0.00 | 0.00 | 0.00 | 71 | 1053.3 |
| 20260901180938 | 78 | 193 | 1.0 | 3.0 | 0.00 | 0.00 | 0.00 | 71 | 1053.2 |
| 20260901180838 | 78 | 193 | 1.0 | 3.0 | 0.00 | 0.00 | 0.00 | 71 | 1053.3 |
| 20260901180738 | 78 | 193 | 1.0 | 3.0 | 0.00 | 0.00 | 0.00 | 71 | 1053.3 |
| 20260901180624 | 78 | 193 | 1.0 | 3.0 | 0.00 | 0.00 | 0.00 | 71 | 1053.3 |
| 20260901180539 | 78 | 193 | 2.0 | 3.0 | 0.00 | 0.00 | 0.00 | 71 | 1053.3 |
| 20260901180438 | 78 | 193 | 2.0 | 3.0 | 0.00 | 0.00 | 0.00 | 71 | 1053.3 |
| 20260901180409 | 78 | 193 | 2.0 | 3.0 | 0.00 | 0.00 | 0.00 | 71 | 1053.4 |
| 20260901180400 | 78 | 193 | 2.0 | 4.0 | 0.00 | 0.00 | 0.00 | 71 | 1053.5 |
| 20260901180344 | 78 | 193 | 2.0 | 4.0 | 0.00 | 0.00 | 0.00 | 71 | 1053.5 |
| 20260901180033 | 78 | 194 | 2.0 | 4.0 | 0.00 | 0.00 | 0.00 | 71 | 1053.4 |
| 20260901175932 | 78 | 194 | 2.0 | 4.0 | 0.00 | 0.00 | 0.00 | 71 | 1053.5 |
| 20260901175831 | 78 | 193 | 2.0 | 4.0 | 0.00 | 0.00 | 0.00 | 71 | 1053.5 |
| 20260901175730 | 78 | 193 | 2.0 | 4.0 | 0.00 | 0.00 | 0.00 | 71 | 1053.5 |
| 20260901175629 | 78 | 194 | 2.0 | 4.0 | 0.00 | 0.00 | 0.00 | 71 | 1053.5 |
| 20260901175625 | 78 | 193 | 2.0 | 4.0 | 0.00 | 0.00 | 0.00 | 71 | 1053.5 |
| 20260901175529 | 78 | 193 | 2.0 | 4.0 | 0.00 | 0.00 | 0.00 | 71 | 1053.6 |
| 20260901175500 | 78 | 193 | 2.0 | 4.0 | 0.00 | 0.00 | 0.00 | 70 | 1053.6 |
| 20260901175452 | 78 | 194 | 2.0 | 4.0 | 0.00 | 0.00 | 0.00 | 70 | 1053.6 |
| 20260901175124 | 78 | 192 | 2.0 | 4.0 | 0.00 | 0.00 | 0.00 | 70 | 1053.6 |
| 20260901175027 | 78 | 192 | 2.0 | 4.0 | 0.00 | 0.00 | 0.00 | 70 | 1053.6 |
| 20260901174925 | 78 | 193 | 2.0 | 4.0 | 0.00 | 0.00 | 0.00 | 70 | 1053.6 |
| 20260901174825 | 78 | 193 | 2.0 | 5.0 | 0.00 | 0.00 | 0.00 | 70 | 1053.6 |
| 20260901174722 | 78 | 193 | 2.0 | 7.0 | 0.00 | 0.00 | 0.00 | 70 | 1053.6 |
| 20260901174650 | 78 | 193 | 3.0 | 9.0 | 0.00 | 0.00 | 0.00 | 70 | 1053.6 |
| 20260901174639 | 78 | 193 | 3.0 | 9.0 | 0.00 | 0.00 | 0.00 | 70 | 1053.6 |
| 20260901174318 | 78 | 155 | 3.0 | 9.0 | 0.00 | 0.00 | 0.00 | 70 | 1053.7 |
| 20260901174217 | 78 | 155 | 3.0 | 9.0 | 0.00 | 0.00 | 0.00 | 70 | 1053.7 |
| 20260901174120 | 79 | 154 | 3.0 | 9.0 | 0.00 | 0.00 | 0.00 | 70 | 1053.8 |
| 20260901174115 | 79 | 154 | 4.0 | 9.0 | 0.00 | 0.00 | 0.00 | 70 | 1053.9 |
| 20260901174026 | 79 | 154 | 4.0 | 9.0 | 0.00 | 0.00 | 0.00 | 70 | 1053.9 |
| 20260901174018 | 79 | 154 | 4.0 | 9.0 | 0.00 | 0.00 | 0.00 | 70 | 1053.9 |
| 20260901174007 | 79 | 154 | 4.0 | 9.0 | 0.00 | 0.00 | 0.00 | 70 | 1053.9 |
| 20260901173955 | 79 | 210 | 4.0 | 9.0 | 0.00 | 0.00 | 0.00 | 70 | 1053.9 |
| 20260901173945 | 79 | 233 | 3.0 | 7.0 | 0.00 | 0.00 | 0.00 | 70 | 1053.9 |
| 20260901173940 | 79 | 196 | 3.0 | 7.0 | 0.00 | 0.00 | 0.00 | 70 | 1053.9 |
| 20260901173438 | 79 | 195 | 3.0 | 7.0 | 0.00 | 0.00 | 0.00 | 70 | 1053.9 |
| 20260901173113 | 79 | 191 | 3.0 | 7.0 | 0.00 | 0.00 | 0.00 | 70 | 1054.0 |
| 20260901173108 | 79 | 192 | 3.0 | 7.0 | 0.00 | 0.00 | 0.00 | 70 | 1053.9 |
| 20260901173013 | 79 | 166 | 3.0 | 7.0 | 0.00 | 0.00 | 0.00 | 70 | 1053.9 |
| 20260901172912 | 79 | 170 | 2.0 | 6.0 | 0.00 | 0.00 | 0.00 | 70 | 1054.0 |
| 20260901172808 | 79 | 177 | 2.0 | 6.0 | 0.00 | 0.00 | 0.00 | 70 | 1053.9 |
| 20260901172707 | 79 | 164 | 3.0 | 6.0 | 0.00 | 0.00 | 0.00 | 71 | 1054.0 |
| 20260901172608 | 79 | 213 | 3.0 | 6.0 | 0.00 | 0.00 | 0.00 | 71 | 1054.0 |
| 20260901172533 | 78 | 260 | 3.0 | 6.0 | 0.00 | 0.00 | 0.00 | 71 | 1054.0 |
| 20260901172525 | 78 | 260 | 3.0 | 6.0 | 0.00 | 0.00 | 0.00 | 71 | 1054.0 |
| 20260901172203 | 78 | 179 | 3.0 | 6.0 | 0.00 | 0.00 | 0.00 | 70 | 1054.0 |
| 20260901172102 | 78 | 179 | 3.0 | 6.0 | 0.00 | 0.00 | 0.00 | 71 | 1054.0 |
| 20260901172003 | 78 | 175 | 3.0 | 6.0 | 0.00 | 0.00 | 0.00 | 71 | 1054.1 |
| 20260901171902 | 78 | 224 | 3.0 | 6.0 | 0.00 | 0.00 | 0.00 | 71 | 1054.1 |
| 20260901171802 | 78 | 224 | 3.0 | 6.0 | 0.00 | 0.00 | 0.00 | 71 | 1054.1 |
| 20260901171703 | 78 | 196 | 3.0 | 6.0 | 0.00 | 0.00 | 0.00 | 71 | 1054.1 |
| 20260901171614 | 78 | 188 | 3.0 | 6.0 | 0.00 | 0.00 | 0.00 | 71 | 1054.1 |
| 20260901171602 | 78 | 189 | 3.0 | 6.0 | 0.00 | 0.00 | 0.00 | 71 | 1054.1 |
| 20260901171502 | 78 | 181 | 3.0 | 6.0 | 0.00 | 0.00 | 0.00 | 71 | 1054.1 |
| 20260901171401 | 78 | 180 | 3.0 | 7.0 | 0.00 | 0.00 | 0.00 | 71 | 1054.1 |
| 20260901171301 | 78 | 180 | 3.0 | 8.0 | 0.00 | 0.00 | 0.00 | 71 | 1054.1 |
| 20260901171238 | 78 | 188 | 3.0 | 8.0 | 0.00 | 0.00 | 0.00 | 71 | 1054.1 |
| 20260901171222 | 78 | 121 | 3.0 | 8.0 | 0.00 | 0.00 | 0.00 | 71 | 1054.1 |
| 20260901170900 | 78 | 207 | 4.0 | 8.0 | 0.00 | 0.00 | 0.00 | 71 | 1054.2 |
| 20260901170846 | 78 | 206 | 4.0 | 8.0 | 0.00 | 0.00 | 0.00 | 71 | 1054.2 |
| 20260901170837 | 78 | 184 | 4.0 | 8.0 | 0.00 | 0.00 | 0.00 | 71 | 1054.2 |
| 20260901170828 | 78 | 183 | 4.0 | 8.0 | 0.00 | 0.00 | 0.00 | 71 | 1054.2 |
| 20260901170817 | 78 | 183 | 4.0 | 8.0 | 0.00 | 0.00 | 0.00 | 71 | 1054.2 |
| 20260901170547 | 78 | 139 | 4.0 | 9.0 | 0.00 | 0.00 | 0.00 | 70 | 1054.3 |
| 20260901170533 | 78 | 185 | 4.0 | 9.0 | 0.00 | 0.00 | 0.00 | 70 | 1054.3 |
| 20260901170521 | 78 | 128 | 4.0 | 9.0 | 0.00 | 0.00 | 0.00 | 70 | 1054.3 |
| 20260901170240 | 78 | 225 | 4.0 | 9.0 | 0.00 | 0.00 | 0.00 | 70 | 1054.3 |
| 20260901170231 | 78 | 198 | 4.0 | 9.0 | 0.00 | 0.00 | 0.00 | 70 | 1054.3 |
| 20260901170224 | 78 | 210 | 4.0 | 10.0 | 0.00 | 0.00 | 0.00 | 70 | 1054.2 |
| 20260901170208 | 78 | 258 | 4.0 | 10.0 | 0.00 | 0.00 | 0.00 | 70 | 1054.2 |
| 20260901170156 | 78 | 231 | 5.0 | 10.0 | 0.00 | 0.00 | 0.00 | 70 | 1054.2 |
| 20260901165718 | 78 | 199 | 5.0 | 11.0 | 0.00 | 0.00 | 0.00 | 70 | 1054.2 |
| 20260901165710 | 78 | 168 | 5.0 | 11.0 | 0.00 | 0.00 | 0.00 | 70 | 1054.3 |
| 20260901165223 | 78 | 191 | 5.0 | 11.0 | 0.00 | 0.00 | 0.00 | 70 | 1054.4 |
| 20260901165216 | 78 | 191 | 5.0 | 11.0 | 0.00 | 0.00 | 0.00 | 70 | 1054.4 |
| 20260901164848 | 78 | 159 | 5.0 | 11.0 | 0.00 | 0.00 | 0.00 | 70 | 1054.5 |
| 20260901164748 | 78 | 231 | 4.0 | 11.0 | 0.00 | 0.00 | 0.00 | 69 | 1054.3 |
| 20260901164648 | 78 | 205 | 4.0 | 11.0 | 0.00 | 0.00 | 0.00 | 69 | 1054.5 |
| 20260901164604 | 78 | 241 | 4.0 | 11.0 | 0.00 | 0.00 | 0.00 | 69 | 1054.3 |
| 20260901164549 | 78 | 162 | 4.0 | 11.0 | 0.00 | 0.00 | 0.00 | 69 | 1054.3 |
| 20260901164448 | 78 | 220 | 4.0 | 11.0 | 0.00 | 0.00 | 0.00 | 69 | 1054.3 |
| 20260901164409 | 78 | 156 | 5.0 | 11.0 | 0.00 | 0.00 | 0.00 | 69 | 1054.3 |
| 20260901164400 | 79 | 175 | 4.0 | 11.0 | 0.00 | 0.00 | 0.00 | 69 | 1054.3 |
| 20260901164345 | 79 | 225 | 4.0 | 9.0 | 0.00 | 0.00 | 0.00 | 69 | 1054.3 |
| 20260901164337 | 79 | 233 | 4.0 | 8.0 | 0.00 | 0.00 | 0.00 | 69 | 1054.3 |
| 20260901164328 | 79 | 231 | 4.0 | 8.0 | 0.00 | 0.00 | 0.00 | 69 | 1054.3 |
| 20260901163749 | 79 | 237 | 4.0 | 8.0 | 0.00 | 0.00 | 0.00 | 69 | 1054.3 |
| 20260901163648 | 79 | 237 | 4.0 | 8.0 | 0.00 | 0.00 | 0.00 | 69 | 1054.2 |
| 20260901163603 | 79 | 228 | 4.0 | 8.0 | 0.00 | 0.00 | 0.00 | 69 | 1054.2 |
| 20260901163547 | 79 | 239 | 4.0 | 8.0 | 0.00 | 0.00 | 0.00 | 69 | 1054.2 |
| 20260901163446 | 79 | 235 | 4.0 | 9.0 | 0.00 | 0.00 | 0.00 | 69 | 1054.2 |
| 20260901163347 | 79 | 191 | 4.0 | 9.0 | 0.00 | 0.00 | 0.00 | 68 | 1054.2 |
| 20260901163247 | 79 | 234 | 4.0 | 9.0 | 0.00 | 0.00 | 0.00 | 68 | 1054.3 |
| 20260901163146 | 79 | 191 | 4.0 | 9.0 | 0.00 | 0.00 | 0.00 | 68 | 1054.3 |
| 20260901163103 | 79 | 242 | 4.0 | 9.0 | 0.00 | 0.00 | 0.00 | 68 | 1054.2 |
| 20260901163044 | 79 | 242 | 4.0 | 9.0 | 0.00 | 0.00 | 0.00 | 68 | 1054.2 |
| 20260901162945 | 79 | 201 | 4.0 | 9.0 | 0.00 | 0.00 | 0.00 | 68 | 1054.2 |
| 20260901162844 | 79 | 211 | 4.0 | 9.0 | 0.00 | 0.00 | 0.00 | 68 | 1054.2 |
| 20260901162743 | 79 | 231 | 4.0 | 9.0 | 0.00 | 0.00 | 0.00 | 68 | 1054.2 |
| 20260901162640 | 79 | 181 | 4.0 | 9.0 | 0.00 | 0.00 | 0.00 | 68 | 1054.3 |
| 20260901162603 | 79 | 171 | 4.0 | 9.0 | 0.00 | 0.00 | 0.00 | 68 | 1054.3 |
| 20260901162538 | 79 | 183 | 4.0 | 9.0 | 0.00 | 0.00 | 0.00 | 68 | 1054.3 |
| 20260901162438 | 79 | 225 | 5.0 | 9.0 | 0.00 | 0.00 | 0.00 | 68 | 1054.2 |
| 20260901162357 | 79 | 202 | 5.0 | 12.0 | 0.00 | 0.00 | 0.00 | 68 | 1054.3 |
| 20260901162341 | 79 | 177 | 5.0 | 12.0 | 0.00 | 0.00 | 0.00 | 68 | 1054.3 |
| 20260901162327 | 79 | 200 | 5.0 | 12.0 | 0.00 | 0.00 | 0.00 | 68 | 1054.3 |
| 20260901162034 | 79 | 259 | 5.0 | 12.0 | 0.00 | 0.00 | 0.00 | 68 | 1054.3 |
| 20260901161934 | 79 | 270 | 5.0 | 12.0 | 0.00 | 0.00 | 0.00 | 68 | 1054.3 |
| 20260901161834 | 79 | 213 | 6.0 | 12.0 | 0.00 | 0.00 | 0.00 | 68 | 1054.3 |
| 20260901161757 | 79 | 216 | 6.0 | 12.0 | 0.00 | 0.00 | 0.00 | 68 | 1054.3 |
| 20260901161745 | 79 | 224 | 5.0 | 12.0 | 0.00 | 0.00 | 0.00 | 67 | 1054.3 |
| 20260901161734 | 79 | 208 | 6.0 | 12.0 | 0.00 | 0.00 | 0.00 | 67 | 1054.4 |
| 20260901161719 | 79 | 204 | 6.0 | 12.0 | 0.00 | 0.00 | 0.00 | 67 | 1054.4 |
| 20260901161708 | 79 | 192 | 5.0 | 12.0 | 0.00 | 0.00 | 0.00 | 67 | 1054.5 |
| 20260901161438 | 79 | 132 | 5.0 | 11.0 | 0.00 | 0.00 | 0.00 | 67 | 1054.4 |
| 20260901161426 | 79 | 166 | 5.0 | 11.0 | 0.00 | 0.00 | 0.00 | 67 | 1054.5 |
| 20260901161419 | 79 | 204 | 5.0 | 11.0 | 0.00 | 0.00 | 0.00 | 67 | 1054.5 |
| 20260901161152 | 79 | 202 | 5.0 | 11.0 | 0.00 | 0.00 | 0.00 | 67 | 1054.5 |
| 20260901160924 | 80 | 108 | 5.0 | 11.0 | 0.00 | 0.00 | 0.00 | 67 | 1054.5 |
| 20260901160905 | 80 | 156 | 5.0 | 11.0 | 0.00 | 0.00 | 0.00 | 67 | 1054.5 |
| 20260901160859 | 80 | 168 | 5.0 | 11.0 | 0.00 | 0.00 | 0.00 | 67 | 1054.5 |
| 20260901160630 | 80 | 224 | 5.0 | 10.0 | 0.00 | 0.00 | 0.00 | 67 | 1054.5 |
| 20260901160608 | 80 | 204 | 5.0 | 10.0 | 0.00 | 0.00 | 0.00 | 67 | 1054.5 |
| 20260901160558 | 80 | 199 | 4.0 | 12.0 | 0.00 | 0.00 | 0.00 | 67 | 1054.5 |
| 20260901160541 | 80 | 185 | 5.0 | 12.0 | 0.00 | 0.00 | 0.00 | 67 | 1054.6 |
| 20260901160537 | 80 | 229 | 5.0 | 12.0 | 0.00 | 0.00 | 0.00 | 67 | 1054.5 |
| 20260901160029 | 80 | 215 | 5.0 | 12.0 | 0.00 | 0.00 | 0.00 | 67 | 1054.6 |
| 20260901155759 | 80 | 272 | 4.0 | 12.0 | 0.00 | 0.00 | 0.00 | 66 | 1054.7 |
| 20260901155754 | 80 | 149 | 4.0 | 12.0 | 0.00 | 0.00 | 0.00 | 66 | 1054.7 |
| 20260901155518 | 80 | 184 | 4.0 | 12.0 | 0.00 | 0.00 | 0.00 | 66 | 1054.7 |
| 20260901155508 | 80 | 138 | 4.0 | 12.0 | 0.00 | 0.00 | 0.00 | 66 | 1054.6 |
| 20260901155458 | 80 | 221 | 4.0 | 12.0 | 0.00 | 0.00 | 0.00 | 65 | 1054.6 |
| 20260901155447 | 80 | 216 | 4.0 | 12.0 | 0.00 | 0.00 | 0.00 | 65 | 1054.5 |
| 20260901155443 | 80 | 220 | 4.0 | 12.0 | 0.00 | 0.00 | 0.00 | 65 | 1054.5 |
| 20260901154949 | 80 | 171 | 4.0 | 10.0 | 0.00 | 0.00 | 0.00 | 65 | 1054.4 |
| 20260901154620 | 81 | 174 | 4.0 | 10.0 | 0.00 | 0.00 | 0.00 | 65 | 1054.3 |
| 20260901154603 | 81 | 170 | 4.0 | 10.0 | 0.00 | 0.00 | 0.00 | 65 | 1054.4 |
| 20260901154523 | 81 | 201 | 4.0 | 10.0 | 0.00 | 0.00 | 0.00 | 65 | 1054.4 |
| 20260901154451 | 81 | 122 | 5.0 | 9.0 | 0.00 | 0.00 | 0.00 | 64 | 1054.4 |
| 20260901154440 | 81 | 154 | 5.0 | 9.0 | 0.00 | 0.00 | 0.00 | 64 | 1054.5 |
| 20260901154114 | 81 | 214 | 4.0 | 9.0 | 0.00 | 0.00 | 0.00 | 64 | 1054.5 |
| 20260901154104 | 81 | 240 | 4.0 | 9.0 | 0.00 | 0.00 | 0.00 | 64 | 1054.5 |
| 20260901154014 | 81 | 158 | 4.0 | 9.0 | 0.00 | 0.00 | 0.00 | 64 | 1054.5 |
| 20260901153914 | 81 | 135 | 4.0 | 10.0 | 0.00 | 0.00 | 0.00 | 64 | 1054.5 |
| 20260901153813 | 81 | 160 | 4.0 | 11.0 | 0.00 | 0.00 | 0.00 | 64 | 1054.5 |
| 20260901153708 | 81 | 172 | 4.0 | 11.0 | 0.00 | 0.00 | 0.00 | 65 | 1054.5 |
| 20260901153610 | 81 | 193 | 4.0 | 11.0 | 0.00 | 0.00 | 0.00 | 65 | 1054.5 |
| 20260901153605 | 81 | 187 | 5.0 | 11.0 | 0.00 | 0.00 | 0.00 | 65 | 1054.5 |
| 20260901153508 | 81 | 207 | 5.0 | 11.0 | 0.00 | 0.00 | 0.00 | 65 | 1054.5 |
| 20260901153408 | 81 | 183 | 4.0 | 11.0 | 0.00 | 0.00 | 0.00 | 65 | 1054.4 |
| 20260901153307 | 81 | 233 | 4.0 | 11.0 | 0.00 | 0.00 | 0.00 | 65 | 1054.3 |
| 20260901153206 | 81 | 233 | 4.0 | 11.0 | 0.00 | 0.00 | 0.00 | 65 | 1054.3 |
| 20260901153104 | 81 | 236 | 4.0 | 11.0 | 0.00 | 0.00 | 0.00 | 65 | 1054.3 |
| 20260901153007 | 81 | 232 | 4.0 | 11.0 | 0.00 | 0.00 | 0.00 | 65 | 1054.3 |
| 20260901152904 | 81 | 219 | 4.0 | 11.0 | 0.00 | 0.00 | 0.00 | 65 | 1054.4 |
| 20260901152802 | 81 | 218 | 4.0 | 11.0 | 0.00 | 0.00 | 0.00 | 65 | 1054.3 |
| 20260901152713 | 81 | 216 | 4.0 | 11.0 | 0.00 | 0.00 | 0.00 | 65 | 1054.3 |
| 20260901152701 | 81 | 185 | 4.0 | 13.0 | 0.00 | 0.00 | 0.00 | 65 | 1054.3 |
| 20260901152657 | 81 | 166 | 4.0 | 13.0 | 0.00 | 0.00 | 0.00 | 65 | 1054.3 |
| 20260901152642 | 81 | 210 | 5.0 | 13.0 | 0.00 | 0.00 | 0.00 | 65 | 1054.3 |
| 20260901152633 | 81 | 212 | 5.0 | 13.0 | 0.00 | 0.00 | 0.00 | 65 | 1054.4 |
| 20260901152400 | 81 | 179 | 5.0 | 13.0 | 0.00 | 0.00 | 0.00 | 64 | 1054.6 |
| 20260901152349 | 81 | 175 | 5.0 | 13.0 | 0.00 | 0.00 | 0.00 | 64 | 1054.5 |
| 20260901152125 | 81 | 92 | 5.0 | 13.0 | 0.00 | 0.00 | 0.00 | 64 | 1054.5 |
| 20260901151801 | 81 | 223 | 5.0 | 13.0 | 0.00 | 0.00 | 0.00 | 64 | 1054.6 |
| 20260901151702 | 81 | 244 | 5.0 | 13.0 | 0.00 | 0.00 | 0.00 | 64 | 1054.6 |
| 20260901151603 | 81 | 134 | 5.0 | 11.0 | 0.00 | 0.00 | 0.00 | 65 | 1054.6 |
| 20260901151456 | 81 | 185 | 5.0 | 11.0 | 0.00 | 0.00 | 0.00 | 65 | 1054.6 |
| 20260901151446 | 81 | 215 | 5.0 | 11.0 | 0.00 | 0.00 | 0.00 | 66 | 1054.5 |
| 20260901151437 | 81 | 225 | 5.0 | 12.0 | 0.00 | 0.00 | 0.00 | 65 | 1054.6 |
| 20260901151419 | 81 | 181 | 6.0 | 12.0 | 0.00 | 0.00 | 0.00 | 65 | 1054.6 |
| 20260901151152 | 81 | 118 | 6.0 | 12.0 | 0.00 | 0.00 | 0.00 | 65 | 1054.6 |
| 20260901151140 | 81 | 133 | 6.0 | 12.0 | 0.00 | 0.00 | 0.00 | 65 | 1054.6 |
| 20260901151126 | 81 | 172 | 6.0 | 12.0 | 0.00 | 0.00 | 0.00 | 65 | 1054.7 |
| 20260901150857 | 81 | 212 | 5.0 | 12.0 | 0.00 | 0.00 | 0.00 | 66 | 1054.7 |
| 20260901150847 | 81 | 208 | 6.0 | 12.0 | 0.00 | 0.00 | 0.00 | 66 | 1054.7 |
| 20260901150839 | 81 | 263 | 6.0 | 12.0 | 0.00 | 0.00 | 0.00 | 66 | 1054.7 |
| 20260901150608 | 80 | 256 | 6.0 | 12.0 | 0.00 | 0.00 | 0.00 | 66 | 1054.7 |
| 20260901150544 | 80 | 222 | 6.0 | 13.0 | 0.00 | 0.00 | 0.00 | 66 | 1054.7 |
| 20260901150045 | 80 | 169 | 6.0 | 13.0 | 0.00 | 0.00 | 0.00 | 66 | 1054.6 |
| 20260901145936 | 80 | 268 | 6.0 | 13.0 | 0.00 | 0.00 | 0.00 | 66 | 1054.6 |
| 20260901145910 | 80 | 275 | 6.0 | 13.0 | 0.00 | 0.00 | 0.00 | 66 | 1054.6 |
| 20260901145900 | 80 | 195 | 6.0 | 13.0 | 0.00 | 0.00 | 0.00 | 66 | 1054.6 |
| 20260901145846 | 80 | 197 | 6.0 | 13.0 | 0.00 | 0.00 | 0.00 | 66 | 1054.6 |
| 20260901145838 | 80 | 207 | 5.0 | 13.0 | 0.00 | 0.00 | 0.00 | 66 | 1054.7 |
| 20260901145829 | 80 | 229 | 5.0 | 13.0 | 0.00 | 0.00 | 0.00 | 66 | 1054.7 |
| 20260901145338 | 80 | 210 | 5.0 | 12.0 | 0.00 | 0.00 | 0.00 | 66 | 1054.8 |
| 20260901145323 | 80 | 217 | 4.0 | 10.0 | 0.00 | 0.00 | 0.00 | 67 | 1054.8 |
| 20260901145315 | 80 | 190 | 4.0 | 10.0 | 0.00 | 0.00 | 0.00 | 67 | 1054.8 |
| 20260901145052 | 80 | 181 | 3.0 | 10.0 | 0.00 | 0.00 | 0.00 | 67 | 1054.8 |
| 20260901144730 | 80 | 206 | 4.0 | 10.0 | 0.00 | 0.00 | 0.00 | 67 | 1054.7 |
| 20260901144708 | 80 | 204 | 4.0 | 11.0 | 0.00 | 0.00 | 0.00 | 66 | 1054.6 |
| 20260901144701 | 80 | 189 | 5.0 | 12.0 | 0.00 | 0.00 | 0.00 | 66 | 1054.6 |
| 20260901144653 | 80 | 131 | 5.0 | 12.0 | 0.00 | 0.00 | 0.00 | 66 | 1054.6 |
| 20260901144331 | 80 | 198 | 5.0 | 13.0 | 0.00 | 0.00 | 0.00 | 66 | 1054.8 |
| 20260901144228 | 80 | 151 | 5.0 | 13.0 | 0.00 | 0.00 | 0.00 | 66 | 1054.7 |
| 20260901144203 | 80 | 241 | 5.0 | 13.0 | 0.00 | 0.00 | 0.00 | 66 | 1054.8 |
| 20260901144156 | 80 | 243 | 6.0 | 13.0 | 0.00 | 0.00 | 0.00 | 66 | 1054.8 |
| 20260901144149 | 80 | 243 | 6.0 | 13.0 | 0.00 | 0.00 | 0.00 | 66 | 1054.8 |
| 20260901143828 | 80 | 179 | 7.0 | 13.0 | 0.00 | 0.00 | 0.00 | 66 | 1054.9 |
| 20260901143726 | 80 | 167 | 6.0 | 13.0 | 0.00 | 0.00 | 0.00 | 66 | 1055.0 |
| 20260901143626 | 80 | 206 | 6.0 | 13.0 | 0.00 | 0.00 | 0.00 | 66 | 1055.0 |
| 20260901143602 | 80 | 237 | 6.0 | 13.0 | 0.00 | 0.00 | 0.00 | 66 | 1055.0 |
| 20260901143555 | 80 | 236 | 6.0 | 13.0 | 0.00 | 0.00 | 0.00 | 66 | 1055.0 |
| 20260901143547 | 80 | 197 | 5.0 | 13.0 | 0.00 | 0.00 | 0.00 | 66 | 1055.0 |
| 20260901143222 | 80 | 234 | 5.0 | 13.0 | 0.00 | 0.00 | 0.00 | 66 | 1055.0 |
| 20260901143120 | 80 | 238 | 5.0 | 13.0 | 0.00 | 0.00 | 0.00 | 66 | 1055.0 |
| 20260901143101 | 80 | 208 | 5.0 | 13.0 | 0.00 | 0.00 | 0.00 | 66 | 1055.0 |
| 20260901143018 | 80 | 186 | 5.0 | 13.0 | 0.00 | 0.00 | 0.00 | 65 | 1055.0 |
| 20260901142918 | 80 | 223 | 5.0 | 11.0 | 0.00 | 0.00 | 0.00 | 66 | 1055.1 |
| 20260901142906 | 80 | 209 | 4.0 | 9.0 | 0.00 | 0.00 | 0.00 | 66 | 1055.1 |
| 20260901142858 | 80 | 193 | 4.0 | 9.0 | 0.00 | 0.00 | 0.00 | 66 | 1055.0 |
| 20260901142842 | 80 | 191 | 4.0 | 9.0 | 0.00 | 0.00 | 0.00 | 66 | 1055.0 |
| 20260901142834 | 80 | 225 | 4.0 | 9.0 | 0.00 | 0.00 | 0.00 | 66 | 1055.1 |
| 20260901142607 | 80 | 120 | 4.0 | 9.0 | 0.00 | 0.00 | 0.00 | 66 | 1055.0 |
| 20260901142556 | 80 | 199 | 4.0 | 9.0 | 0.00 | 0.00 | 0.00 | 66 | 1055.0 |
| 20260901142104 | 80 | 206 | 4.0 | 9.0 | 0.00 | 0.00 | 0.00 | 66 | 1055.0 |
| 20260901142016 | 80 | 245 | 4.0 | 9.0 | 0.00 | 0.00 | 0.00 | 66 | 1055.0 |
| 20260901141916 | 80 | 179 | 4.0 | 9.0 | 0.00 | 0.00 | 0.00 | 66 | 1055.0 |
| 20260901141816 | 80 | 146 | 4.0 | 8.0 | 0.00 | 0.00 | 0.00 | 66 | 1055.0 |
| 20260901141736 | 80 | 179 | 4.0 | 10.0 | 0.00 | 0.00 | 0.00 | 66 | 1055.1 |
| 20260901141726 | 80 | 180 | 4.0 | 10.0 | 0.00 | 0.00 | 0.00 | 66 | 1054.9 |
| 20260901141721 | 80 | 227 | 4.0 | 10.0 | 0.00 | 0.00 | 0.00 | 66 | 1054.9 |
| 20260901141701 | 80 | 136 | 4.0 | 10.0 | 0.00 | 0.00 | 0.00 | 66 | 1054.9 |
| 20260901141650 | 80 | 259 | 4.0 | 10.0 | 0.00 | 0.00 | 0.00 | 66 | 1054.9 |
| 20260901141101 | 80 | 164 | 5.0 | 13.0 | 0.00 | 0.00 | 0.00 | 65 | 1054.9 |
| 20260901141006 | 81 | 137 | 5.0 | 13.0 | 0.00 | 0.00 | 0.00 | 65 | 1054.9 |
| 20260901140906 | 81 | 230 | 5.0 | 13.0 | 0.00 | 0.00 | 0.00 | 65 | 1054.9 |
| 20260901140806 | 81 | 193 | 5.0 | 13.0 | 0.00 | 0.00 | 0.00 | 65 | 1054.9 |
| 20260901140707 | 81 | 161 | 5.0 | 13.0 | 0.00 | 0.00 | 0.00 | 65 | 1054.9 |
| 20260901140607 | 81 | 185 | 5.0 | 13.0 | 0.00 | 0.00 | 0.00 | 65 | 1055.0 |
| 20260901140601 | 81 | 185 | 6.0 | 13.0 | 0.00 | 0.00 | 0.00 | 65 | 1055.0 |
| 20260901140507 | 81 | 258 | 6.0 | 13.0 | 0.00 | 0.00 | 0.00 | 65 | 1054.9 |
| 20260901140406 | 81 | 264 | 6.0 | 13.0 | 0.00 | 0.00 | 0.00 | 64 | 1054.9 |
| 20260901140306 | 81 | 235 | 6.0 | 13.0 | 0.00 | 0.00 | 0.00 | 64 | 1054.9 |
| 20260901140206 | 81 | 218 | 6.0 | 12.0 | 0.00 | 0.00 | 0.00 | 64 | 1054.9 |
| 20260901140105 | 81 | 167 | 6.0 | 12.0 | 0.00 | 0.00 | 0.00 | 64 | 1055.0 |
| 20260901140004 | 81 | 179 | 6.0 | 12.0 | 0.00 | 0.00 | 0.00 | 64 | 1055.0 |
| 20260901135902 | 81 | 196 | 6.0 | 11.0 | 0.00 | 0.00 | 0.00 | 64 | 1055.0 |
| 20260901135802 | 81 | 276 | 5.0 | 11.0 | 0.00 | 0.00 | 0.00 | 64 | 1055.1 |
| 20260901135708 | 81 | 250 | 5.0 | 11.0 | 0.00 | 0.00 | 0.00 | 64 | 1055.0 |
| 20260901135656 | 81 | 197 | 5.0 | 10.0 | 0.00 | 0.00 | 0.00 | 64 | 1055.1 |
| 20260901135652 | 81 | 202 | 5.0 | 10.0 | 0.00 | 0.00 | 0.00 | 64 | 1055.1 |
| 20260901135641 | 81 | 193 | 5.0 | 10.0 | 0.00 | 0.00 | 0.00 | 64 | 1055.0 |
| 20260901135407 | 81 | 180 | 4.0 | 9.0 | 0.00 | 0.00 | 0.00 | 63 | 1054.9 |
| 20260901135353 | 81 | 151 | 4.0 | 9.0 | 0.00 | 0.00 | 0.00 | 63 | 1054.9 |
| 20260901135131 | 81 | 112 | 4.0 | 9.0 | 0.00 | 0.00 | 0.00 | 63 | 1054.9 |
| 20260901135120 | 81 | 173 | 4.0 | 9.0 | 0.00 | 0.00 | 0.00 | 63 | 1054.9 |
| 20260901135108 | 81 | 166 | 5.0 | 9.0 | 0.00 | 0.00 | 0.00 | 63 | 1055.0 |
| 20260901134831 | 81 | 220 | 4.0 | 9.0 | 0.00 | 0.00 | 0.00 | 63 | 1055.1 |
| 20260901134556 | 81 | 214 | 3.0 | 9.0 | 0.00 | 0.00 | 0.00 | 63 | 1055.1 |
| 20260901134454 | 81 | 219 | 3.0 | 9.0 | 0.00 | 0.00 | 0.00 | 63 | 1054.9 |
| 20260901134354 | 81 | 261 | 3.0 | 9.0 | 0.00 | 0.00 | 0.00 | 63 | 1054.8 |
| 20260901134337 | 81 | 264 | 3.0 | 7.0 | 0.00 | 0.00 | 0.00 | 62 | 1054.7 |
| 20260901134323 | 81 | 197 | 3.0 | 7.0 | 0.00 | 0.00 | 0.00 | 62 | 1054.8 |
| 20260901134054 | 81 | 251 | 3.0 | 7.0 | 0.00 | 0.00 | 0.00 | 63 | 1054.7 |
| 20260901133954 | 81 | 215 | 3.0 | 7.0 | 0.00 | 0.00 | 0.00 | 63 | 1054.7 |
| 20260901133854 | 81 | 214 | 3.0 | 7.0 | 0.00 | 0.00 | 0.00 | 64 | 1054.8 |
| 20260901133807 | 81 | 233 | 3.0 | 9.0 | 0.00 | 0.00 | 0.00 | 64 | 1054.9 |
| 20260901133757 | 81 | 233 | 3.0 | 9.0 | 0.00 | 0.00 | 0.00 | 64 | 1055.0 |
| 20260901133749 | 81 | 233 | 3.0 | 9.0 | 0.00 | 0.00 | 0.00 | 64 | 1055.1 |
| 20260901133740 | 81 | 233 | 3.0 | 9.0 | 0.00 | 0.00 | 0.00 | 63 | 1055.1 |
| 20260901133728 | 81 | 208 | 3.0 | 9.0 | 0.00 | 0.00 | 0.00 | 64 | 1055.1 |
| 20260901133146 | 81 | 279 | 3.0 | 9.0 | 0.00 | 0.00 | 0.00 | 63 | 1055.1 |
| 20260901133101 | 81 | 222 | 3.0 | 9.0 | 0.00 | 0.00 | 0.00 | 63 | 1055.1 |
| 20260901133044 | 81 | 228 | 3.0 | 9.0 | 0.00 | 0.00 | 0.00 | 63 | 1055.1 |
| 20260901132944 | 81 | 233 | 3.0 | 9.0 | 0.00 | 0.00 | 0.00 | 63 | 1055.1 |
| 20260901132844 | 81 | 237 | 3.0 | 9.0 | 0.00 | 0.00 | 0.00 | 63 | 1055.1 |
| 20260901132744 | 81 | 209 | 3.0 | 9.0 | 0.00 | 0.00 | 0.00 | 64 | 1055.2 |
| 20260901132644 | 81 | 152 | 3.0 | 9.0 | 0.00 | 0.00 | 0.00 | 64 | 1055.2 |
| 20260901132601 | 81 | 251 | 3.0 | 9.0 | 0.00 | 0.00 | 0.00 | 63 | 1055.2 |
| 20260901132538 | 81 | 201 | 3.0 | 9.0 | 0.00 | 0.00 | 0.00 | 64 | 1055.2 |
| 20260901132439 | 81 | 162 | 3.0 | 7.0 | 0.00 | 0.00 | 0.00 | 63 | 1055.1 |
| 20260901132338 | 81 | 167 | 3.0 | 7.0 | 0.00 | 0.00 | 0.00 | 63 | 1055.1 |
| 20260901132256 | 81 | 99 | 3.0 | 9.0 | 0.00 | 0.00 | 0.00 | 63 | 1055.0 |
| 20260901132246 | 81 | 101 | 3.0 | 9.0 | 0.00 | 0.00 | 0.00 | 63 | 1055.0 |
| 20260901132240 | 81 | 101 | 4.0 | 9.0 | 0.00 | 0.00 | 0.00 | 63 | 1055.1 |
| 20260901132229 | 81 | 100 | 4.0 | 12.0 | 0.00 | 0.00 | 0.00 | 63 | 1055.1 |
| 20260901132217 | 81 | 164 | 4.0 | 12.0 | 0.00 | 0.00 | 0.00 | 63 | 1055.1 |
| 20260901131636 | 81 | 186 | 4.0 | 12.0 | 0.00 | 0.00 | 0.00 | 63 | 1055.4 |
| 20260901131600 | 81 | 191 | 4.0 | 12.0 | 0.00 | 0.00 | 0.00 | 63 | 1055.3 |
| 20260901131536 | 81 | 195 | 4.0 | 12.0 | 0.00 | 0.00 | 0.00 | 63 | 1055.3 |
| 20260901131434 | 81 | 197 | 4.0 | 12.0 | 0.00 | 0.00 | 0.00 | 63 | 1055.3 |
| 20260901131334 | 81 | 188 | 4.0 | 12.0 | 0.00 | 0.00 | 0.00 | 63 | 1055.2 |
| 20260901131232 | 81 | 236 | 4.0 | 12.0 | 0.00 | 0.00 | 0.00 | 62 | 1055.2 |
| 20260901131132 | 81 | 143 | 4.0 | 12.0 | 0.00 | 0.00 | 0.00 | 63 | 1055.2 |
| 20260901131101 | 81 | 100 | 4.0 | 12.0 | 0.00 | 0.00 | 0.00 | 62 | 1055.3 |
| 20260901131030 | 81 | 89 | 4.0 | 11.0 | 0.00 | 0.00 | 0.00 | 62 | 1055.3 |
| 20260901130930 | 81 | 71 | 4.0 | 11.0 | 0.00 | 0.00 | 0.00 | 62 | 1055.3 |
| 20260901130832 | 81 | 115 | 4.0 | 11.0 | 0.00 | 0.00 | 0.00 | 62 | 1055.3 |
| 20260901130729 | 81 | 153 | 4.0 | 8.0 | 0.00 | 0.00 | 0.00 | 62 | 1055.3 |
| 20260901130630 | 81 | 188 | 4.0 | 8.0 | 0.00 | 0.00 | 0.00 | 62 | 1055.4 |
| 20260901130600 | 81 | 184 | 4.0 | 8.0 | 0.00 | 0.00 | 0.00 | 62 | 1055.3 |
| 20260901130529 | 81 | 129 | 4.0 | 8.0 | 0.00 | 0.00 | 0.00 | 62 | 1055.3 |
| 20260901130429 | 81 | 208 | 4.0 | 8.0 | 0.00 | 0.00 | 0.00 | 61 | 1055.3 |
| 20260901130403 | 82 | 206 | 4.0 | 9.0 | 0.00 | 0.00 | 0.00 | 61 | 1055.4 |
| 20260901130354 | 82 | 206 | 4.0 | 9.0 | 0.00 | 0.00 | 0.00 | 61 | 1055.4 |
| 20260901130101 | 82 | 208 | 4.0 | 9.0 | 0.00 | 0.00 | 0.00 | 60 | 1055.5 |
| 20260901130028 | 82 | 162 | 4.0 | 9.0 | 0.00 | 0.00 | 0.00 | 61 | 1055.5 |
| 20260901125927 | 82 | 156 | 4.0 | 9.0 | 0.00 | 0.00 | 0.00 | 61 | 1055.5 |
| 20260901125855 | 82 | 107 | 4.0 | 9.0 | 0.00 | 0.00 | 0.00 | 61 | 1055.5 |
| 20260901125847 | 82 | 192 | 4.0 | 9.0 | 0.00 | 0.00 | 0.00 | 61 | 1055.5 |
| 20260901125609 | 82 | 216 | 5.0 | 13.0 | 0.00 | 0.00 | 0.00 | 61 | 1055.7 |
| 20260901125600 | 82 | 207 | 5.0 | 13.0 | 0.00 | 0.00 | 0.00 | 61 | 1055.7 |
| 20260901125549 | 82 | 122 | 5.0 | 13.0 | 0.00 | 0.00 | 0.00 | 60 | 1055.7 |
| 20260901125540 | 82 | 69 | 5.0 | 13.0 | 0.00 | 0.00 | 0.00 | 60 | 1055.6 |
| 20260901125531 | 82 | 193 | 5.0 | 13.0 | 0.00 | 0.00 | 0.00 | 60 | 1055.7 |
| 20260901125012 | 82 | 238 | 5.0 | 13.0 | 0.00 | 0.00 | 0.00 | 60 | 1055.7 |
| 20260901124911 | 82 | 245 | 6.0 | 13.0 | 0.00 | 0.00 | 0.00 | 60 | 1055.7 |
| 20260901124806 | 82 | 233 | 6.0 | 13.0 | 0.00 | 0.00 | 0.00 | 60 | 1055.7 |
| 20260901124705 | 83 | 198 | 6.0 | 13.0 | 0.00 | 0.00 | 0.00 | 59 | 1055.8 |
| 20260901124605 | 83 | 133 | 6.0 | 11.0 | 0.00 | 0.00 | 0.00 | 59 | 1055.8 |
| 20260901124548 | 83 | 146 | 6.0 | 11.0 | 0.00 | 0.00 | 0.00 | 59 | 1055.8 |
| 20260901124506 | 83 | 167 | 6.0 | 11.0 | 0.00 | 0.00 | 0.00 | 60 | 1055.7 |
| 20260901124406 | 82 | 225 | 6.0 | 11.0 | 0.00 | 0.00 | 0.00 | 60 | 1055.8 |
| 20260901124304 | 82 | 201 | 6.0 | 11.0 | 0.00 | 0.00 | 0.00 | 60 | 1055.7 |
| 20260901124204 | 82 | 280 | 5.0 | 11.0 | 0.00 | 0.00 | 0.00 | 61 | 1055.7 |
| 20260901124104 | 82 | 272 | 5.0 | 11.0 | 0.00 | 0.00 | 0.00 | 62 | 1055.8 |
| 20260901124045 | 82 | 242 | 5.0 | 11.0 | 0.00 | 0.00 | 0.00 | 62 | 1055.8 |
| 20260901124003 | 82 | 229 | 5.0 | 11.0 | 0.00 | 0.00 | 0.00 | 61 | 1055.8 |
| 20260901123901 | 82 | 197 | 5.0 | 11.0 | 0.00 | 0.00 | 0.00 | 61 | 1055.8 |
| 20260901123840 | 82 | 236 | 5.0 | 11.0 | 0.00 | 0.00 | 0.00 | 62 | 1055.8 |
| 20260901123832 | 82 | 175 | 5.0 | 11.0 | 0.00 | 0.00 | 0.00 | 62 | 1055.8 |
| 20260901123546 | 82 | 213 | 5.0 | 11.0 | 0.00 | 0.00 | 0.00 | 62 | 1055.7 |
| 20260901123504 | 82 | 174 | 5.0 | 11.0 | 0.00 | 0.00 | 0.00 | 61 | 1055.7 |
| 20260901123401 | 82 | 134 | 5.0 | 12.0 | 0.00 | 0.00 | 0.00 | 60 | 1055.7 |
| 20260901123302 | 82 | 114 | 5.0 | 12.0 | 0.00 | 0.00 | 0.00 | 61 | 1055.7 |
| 20260901123200 | 82 | 128 | 4.0 | 12.0 | 0.00 | 0.00 | 0.00 | 61 | 1055.7 |
| 20260901123140 | 82 | 198 | 4.0 | 12.0 | 0.00 | 0.00 | 0.00 | 61 | 1055.7 |
| 20260901123135 | 82 | 189 | 4.0 | 12.0 | 0.00 | 0.00 | 0.00 | 61 | 1055.7 |
| 20260901123125 | 82 | 218 | 5.0 | 12.0 | 0.00 | 0.00 | 0.00 | 61 | 1055.8 |
| 20260901122800 | 82 | 191 | 5.0 | 13.0 | 0.00 | 0.00 | 0.00 | 61 | 1055.8 |
| 20260901122659 | 82 | 200 | 5.0 | 13.0 | 0.00 | 0.00 | 0.00 | 61 | 1055.7 |
| 20260901122554 | 82 | 222 | 5.0 | 13.0 | 0.00 | 0.00 | 0.00 | 62 | 1055.7 |
| 20260901122544 | 82 | 213 | 5.0 | 13.0 | 0.00 | 0.00 | 0.00 | 62 | 1055.7 |
| 20260901122454 | 82 | 244 | 5.0 | 13.0 | 0.00 | 0.00 | 0.00 | 62 | 1055.7 |
| 20260901122353 | 82 | 157 | 5.0 | 13.0 | 0.00 | 0.00 | 0.00 | 62 | 1055.7 |
| 20260901122254 | 82 | 162 | 6.0 | 13.0 | 0.00 | 0.00 | 0.00 | 62 | 1055.7 |
| 20260901122153 | 82 | 169 | 6.0 | 13.0 | 0.00 | 0.00 | 0.00 | 62 | 1055.7 |
| 20260901122044 | 82 | 213 | 6.0 | 13.0 | 0.00 | 0.00 | 0.00 | 61 | 1055.7 |
| 20260901121946 | 82 | 237 | 6.0 | 13.0 | 0.00 | 0.00 | 0.00 | 61 | 1055.7 |
| 20260901121845 | 82 | 148 | 6.0 | 13.0 | 0.00 | 0.00 | 0.00 | 61 | 1055.8 |
| 20260901121745 | 82 | 120 | 7.0 | 13.0 | 0.00 | 0.00 | 0.00 | 61 | 1055.6 |
| 20260901121720 | 82 | 196 | 6.0 | 17.0 | 0.00 | 0.00 | 0.00 | 61 | 1055.7 |
| 20260901121707 | 82 | 128 | 7.0 | 17.0 | 0.00 | 0.00 | 0.00 | 61 | 1055.7 |
| 20260901121339 | 82 | 205 | 7.0 | 17.0 | 0.00 | 0.00 | 0.00 | 60 | 1055.8 |
| 20260901121237 | 82 | 166 | 6.0 | 17.0 | 0.00 | 0.00 | 0.00 | 60 | 1055.7 |
| 20260901121139 | 82 | 240 | 6.0 | 17.0 | 0.00 | 0.00 | 0.00 | 59 | 1055.8 |
| 20260901121046 | 82 | 255 | 6.0 | 17.0 | 0.00 | 0.00 | 0.00 | 59 | 1056.0 |
| 20260901121037 | 82 | 276 | 6.0 | 17.0 | 0.00 | 0.00 | 0.00 | 59 | 1056.0 |
| 20260901120938 | 83 | 224 | 6.0 | 17.0 | 0.00 | 0.00 | 0.00 | 59 | 1056.1 |
| 20260901120837 | 83 | 177 | 6.0 | 17.0 | 0.00 | 0.00 | 0.00 | 59 | 1056.0 |
| 20260901120815 | 83 | 250 | 6.0 | 17.0 | 0.00 | 0.00 | 0.00 | 59 | 1055.8 |
| 20260901120804 | 83 | 254 | 5.0 | 13.0 | 0.00 | 0.00 | 0.00 | 60 | 1056.0 |
| 20260901120753 | 83 | 227 | 6.0 | 13.0 | 0.00 | 0.00 | 0.00 | 61 | 1056.1 |
| 20260901120438 | 83 | 205 | 6.0 | 13.0 | 0.00 | 0.00 | 0.00 | 61 | 1056.0 |
| 20260901120336 | 83 | 218 | 6.0 | 13.0 | 0.00 | 0.00 | 0.00 | 61 | 1056.0 |
| 20260901120323 | 83 | 262 | 6.0 | 13.0 | 0.00 | 0.00 | 0.00 | 60 | 1056.0 |
| 20260901120304 | 83 | 261 | 6.0 | 13.0 | 0.00 | 0.00 | 0.00 | 60 | 1056.0 |
| 20260901120033 | 83 | 233 | 6.0 | 13.0 | 0.00 | 0.00 | 0.00 | 60 | 1056.1 |
| 20260901120017 | 83 | 264 | 6.0 | 13.0 | 0.00 | 0.00 | 0.00 | 60 | 1056.1 |
| 20260901120007 | 83 | 241 | 6.0 | 13.0 | 0.00 | 0.00 | 0.00 | 60 | 1056.0 |
| 20260901115632 | 83 | 238 | 8.0 | 16.0 | 0.00 | 0.00 | 0.00 | 60 | 1056.0 |
| 20260901115542 | 83 | 206 | 7.0 | 17.0 | 0.00 | 0.00 | 0.00 | 60 | 1056.1 |
| 20260901115532 | 83 | 208 | 7.0 | 17.0 | 0.00 | 0.00 | 0.00 | 60 | 1056.1 |
| 20260901115434 | 83 | 189 | 7.0 | 17.0 | 0.00 | 0.00 | 0.00 | 60 | 1056.1 |
| 20260901115332 | 83 | 215 | 7.0 | 17.0 | 0.00 | 0.00 | 0.00 | 60 | 1056.1 |
| 20260901115230 | 83 | 214 | 7.0 | 17.0 | 0.00 | 0.00 | 0.00 | 60 | 1056.1 |
| 20260901115205 | 83 | 287 | 7.0 | 17.0 | 0.00 | 0.00 | 0.00 | 60 | 1056.1 |
| 20260901115159 | 83 | 192 | 7.0 | 17.0 | 0.00 | 0.00 | 0.00 | 61 | 1056.2 |
| 20260901115153 | 83 | 186 | 7.0 | 17.0 | 0.00 | 0.00 | 0.00 | 61 | 1056.2 |
| 20260901114831 | 83 | 232 | 7.0 | 17.0 | 0.00 | 0.00 | 0.00 | 61 | 1056.1 |
| 20260901114729 | 83 | 206 | 6.0 | 17.0 | 0.00 | 0.00 | 0.00 | 61 | 1056.2 |
| 20260901114629 | 83 | 192 | 6.0 | 17.0 | 0.00 | 0.00 | 0.00 | 62 | 1056.2 |
| 20260901114538 | 83 | 264 | 6.0 | 15.0 | 0.00 | 0.00 | 0.00 | 62 | 1056.1 |
| 20260901114530 | 83 | 190 | 6.0 | 15.0 | 0.00 | 0.00 | 0.00 | 62 | 1056.1 |
| 20260901114501 | 83 | 246 | 6.0 | 12.0 | 0.00 | 0.00 | 0.00 | 62 | 1056.0 |
| 20260901114453 | 83 | 210 | 6.0 | 12.0 | 0.00 | 0.00 | 0.00 | 63 | 1056.1 |
| 20260901114126 | 83 | 204 | 7.0 | 12.0 | 0.00 | 0.00 | 0.00 | 63 | 1056.0 |
| 20260901114106 | 83 | 210 | 6.0 | 13.0 | 0.00 | 0.00 | 0.00 | 63 | 1056.1 |
| 20260901114102 | 83 | 184 | 6.0 | 13.0 | 0.00 | 0.00 | 0.00 | 63 | 1056.1 |
| 20260901114051 | 83 | 261 | 6.0 | 13.0 | 0.00 | 0.00 | 0.00 | 63 | 1056.1 |
| 20260901113726 | 83 | 102 | 5.0 | 13.0 | 0.00 | 0.00 | 0.00 | 62 | 1056.1 |
| 20260901113700 | 83 | 228 | 5.0 | 13.0 | 0.00 | 0.00 | 0.00 | 62 | 1056.1 |
| 20260901113652 | 83 | 127 | 5.0 | 13.0 | 0.00 | 0.00 | 0.00 | 61 | 1056.1 |
| 20260901113648 | 83 | 146 | 5.0 | 13.0 | 0.00 | 0.00 | 0.00 | 61 | 1056.1 |
| 20260901113635 | 83 | 156 | 6.0 | 15.0 | 0.00 | 0.00 | 0.00 | 61 | 1056.1 |
| 20260901113359 | 83 | 195 | 6.0 | 15.0 | 0.00 | 0.00 | 0.00 | 61 | 1056.1 |
| 20260901113349 | 83 | 193 | 5.0 | 15.0 | 0.00 | 0.00 | 0.00 | 62 | 1056.2 |
| 20260901113341 | 83 | 210 | 5.0 | 15.0 | 0.00 | 0.00 | 0.00 | 62 | 1056.1 |
| 20260901113337 | 83 | 308 | 5.0 | 15.0 | 0.00 | 0.00 | 0.00 | 62 | 1056.1 |
| 20260901113322 | 83 | 201 | 5.0 | 15.0 | 0.00 | 0.00 | 0.00 | 62 | 1056.1 |
| 20260901112534 | 83 | 201 | 5.0 | 15.0 | 0.00 | 0.00 | 0.00 | 61 | 1056.2 |
| 20260901112518 | 83 | 199 | 5.0 | 14.0 | 0.00 | 0.00 | 0.00 | 61 | 1056.1 |
| 20260901112417 | 83 | 197 | 5.0 | 13.0 | 0.00 | 0.00 | 0.00 | 61 | 1056.1 |
| 20260901112316 | 83 | 240 | 5.0 | 13.0 | 0.00 | 0.00 | 0.00 | 61 | 1056.1 |
| 20260901112306 | 83 | 265 | 5.0 | 13.0 | 0.00 | 0.00 | 0.00 | 61 | 1056.1 |
| 20260901112250 | 83 | 137 | 5.0 | 13.0 | 0.00 | 0.00 | 0.00 | 61 | 1056.2 |
| 20260901112014 | 83 | 183 | 5.0 | 13.0 | 0.00 | 0.00 | 0.00 | 61 | 1056.1 |
| 20260901111942 | 83 | 203 | 5.0 | 13.0 | 0.00 | 0.00 | 0.00 | 61 | 1056.3 |
| 20260901111933 | 83 | 237 | 5.0 | 13.0 | 0.00 | 0.00 | 0.00 | 61 | 1056.2 |
| 20260901111921 | 83 | 226 | 5.0 | 13.0 | 0.00 | 0.00 | 0.00 | 61 | 1056.2 |
| 20260901111909 | 83 | 214 | 5.0 | 13.0 | 0.00 | 0.00 | 0.00 | 61 | 1056.3 |
| 20260901111643 | 83 | 201 | 5.0 | 13.0 | 0.00 | 0.00 | 0.00 | 60 | 1056.3 |
| 20260901111411 | 83 | 201 | 5.0 | 13.0 | 0.00 | 0.00 | 0.00 | 59 | 1056.2 |
| 20260901111402 | 83 | 182 | 4.0 | 10.0 | 0.00 | 0.00 | 0.00 | 59 | 1056.2 |
| 20260901111350 | 83 | 165 | 4.0 | 10.0 | 0.00 | 0.00 | 0.00 | 58 | 1056.1 |
| 20260901111343 | 83 | 193 | 4.0 | 10.0 | 0.00 | 0.00 | 0.00 | 58 | 1056.1 |
| 20260901111338 | 83 | 194 | 4.0 | 10.0 | 0.00 | 0.00 | 0.00 | 58 | 1056.1 |
| 20260901110832 | 83 | 208 | 5.0 | 14.0 | 0.00 | 0.00 | 0.00 | 61 | 1056.1 |
| 20260901110532 | 83 | 239 | 5.0 | 14.0 | 0.00 | 0.00 | 0.00 | 61 | 1056.1 |
| 20260901110508 | 83 | 230 | 5.0 | 14.0 | 0.00 | 0.00 | 0.00 | 61 | 1056.1 |
| 20260901110407 | 83 | 224 | 5.0 | 14.0 | 0.00 | 0.00 | 0.00 | 61 | 1056.2 |
| 20260901110308 | 82 | 266 | 5.0 | 14.0 | 0.00 | 0.00 | 0.00 | 61 | 1056.2 |
| 20260901110207 | 82 | 237 | 6.0 | 14.0 | 0.00 | 0.00 | 0.00 | 62 | 1056.2 |
| 20260901110107 | 82 | 186 | 6.0 | 14.0 | 0.00 | 0.00 | 0.00 | 62 | 1056.2 |
| 20260901110031 | 82 | 214 | 6.0 | 14.0 | 0.00 | 0.00 | 0.00 | 62 | 1056.2 |
| 20260901110008 | 82 | 203 | 6.0 | 14.0 | 0.00 | 0.00 | 0.00 | 62 | 1056.2 |
| 20260901105943 | 82 | 182 | 6.0 | 14.0 | 0.00 | 0.00 | 0.00 | 62 | 1056.1 |
| 20260901105934 | 82 | 197 | 6.0 | 14.0 | 0.00 | 0.00 | 0.00 | 62 | 1056.1 |
| 20260901105608 | 82 | 212 | 6.0 | 14.0 | 0.00 | 0.00 | 0.00 | 62 | 1056.3 |
| 20260901105531 | 82 | 181 | 6.0 | 14.0 | 0.00 | 0.00 | 0.00 | 62 | 1056.3 |
| 20260901105505 | 82 | 209 | 6.0 | 14.0 | 0.00 | 0.00 | 0.00 | 62 | 1056.2 |
| 20260901105404 | 82 | 131 | 6.0 | 14.0 | 0.00 | 0.00 | 0.00 | 62 | 1056.3 |
| 20260901105338 | 82 | 177 | 5.0 | 14.0 | 0.00 | 0.00 | 0.00 | 62 | 1056.3 |
| 20260901105331 | 82 | 214 | 5.0 | 12.0 | 0.00 | 0.00 | 0.00 | 62 | 1056.3 |
| 20260901105032 | 82 | 212 | 5.0 | 12.0 | 0.00 | 0.00 | 0.00 | 62 | 1056.2 |
| 20260901105004 | 82 | 220 | 6.0 | 12.0 | 0.00 | 0.00 | 0.00 | 61 | 1056.2 |
| 20260901104933 | 82 | 217 | 6.0 | 12.0 | 0.00 | 0.00 | 0.00 | 61 | 1056.2 |
| 20260901104924 | 82 | 199 | 6.0 | 12.0 | 0.00 | 0.00 | 0.00 | 61 | 1056.2 |
| 20260901104602 | 82 | 149 | 6.0 | 12.0 | 0.00 | 0.00 | 0.00 | 61 | 1056.1 |
| 20260901104532 | 82 | 152 | 6.0 | 12.0 | 0.00 | 0.00 | 0.00 | 61 | 1056.1 |
| 20260901104505 | 82 | 143 | 6.0 | 12.0 | 0.00 | 0.00 | 0.00 | 60 | 1056.1 |
| 20260901104401 | 82 | 156 | 6.0 | 12.0 | 0.00 | 0.00 | 0.00 | 60 | 1056.2 |
| 20260901104316 | 82 | 129 | 6.0 | 12.0 | 0.00 | 0.00 | 0.00 | 60 | 1056.1 |
| 20260901104305 | 83 | 179 | 7.0 | 12.0 | 0.00 | 0.00 | 0.00 | 60 | 1056.2 |
| 20260901104253 | 83 | 245 | 7.0 | 12.0 | 0.00 | 0.00 | 0.00 | 60 | 1056.1 |
| 20260901104241 | 83 | 191 | 7.0 | 12.0 | 0.00 | 0.00 | 0.00 | 60 | 1056.1 |
| 20260901104228 | 83 | 224 | 6.0 | 12.0 | 0.00 | 0.00 | 0.00 | 60 | 1056.1 |
| 20260901103957 | 83 | 240 | 7.0 | 13.0 | 0.00 | 0.00 | 0.00 | 61 | 1056.1 |
| 20260901103947 | 83 | 216 | 7.0 | 13.0 | 0.00 | 0.00 | 0.00 | 60 | 1056.1 |
| 20260901103937 | 83 | 195 | 6.0 | 13.0 | 0.00 | 0.00 | 0.00 | 60 | 1056.1 |
| 20260901103356 | 83 | 235 | 7.0 | 13.0 | 0.00 | 0.00 | 0.00 | 60 | 1056.2 |
| 20260901103334 | 83 | 245 | 7.0 | 13.0 | 0.00 | 0.00 | 0.00 | 60 | 1056.3 |
| 20260901103324 | 83 | 201 | 6.0 | 13.0 | 0.00 | 0.00 | 0.00 | 60 | 1056.2 |
| 20260901103047 | 83 | 217 | 6.0 | 13.0 | 0.00 | 0.00 | 0.00 | 59 | 1056.2 |
| 20260901103037 | 83 | 210 | 6.0 | 13.0 | 0.00 | 0.00 | 0.00 | 59 | 1056.2 |
| 20260901103024 | 83 | 260 | 6.0 | 13.0 | 0.00 | 0.00 | 0.00 | 59 | 1056.3 |
| 20260901102655 | 83 | 237 | 5.0 | 12.0 | 0.00 | 0.00 | 0.00 | 59 | 1056.3 |
| 20260901102602 | 83 | 157 | 5.0 | 11.0 | 0.00 | 0.00 | 0.00 | 60 | 1056.3 |
| 20260901102554 | 83 | 181 | 5.0 | 11.0 | 0.00 | 0.00 | 0.00 | 60 | 1056.3 |
| 20260901102546 | 83 | 154 | 5.0 | 11.0 | 0.00 | 0.00 | 0.00 | 60 | 1056.2 |
| 20260901102538 | 83 | 235 | 5.0 | 11.0 | 0.00 | 0.00 | 0.00 | 60 | 1056.3 |
| 20260901102255 | 83 | 191 | 5.0 | 10.0 | 0.00 | 0.00 | 0.00 | 60 | 1056.2 |
| 20260901102243 | 83 | 239 | 4.0 | 10.0 | 0.00 | 0.00 | 0.00 | 60 | 1056.2 |
| 20260901102236 | 83 | 257 | 4.0 | 10.0 | 0.00 | 0.00 | 0.00 | 60 | 1056.2 |
| 20260901102224 | 83 | 218 | 4.0 | 10.0 | 0.00 | 0.00 | 0.00 | 61 | 1056.2 |
| 20260901101952 | 82 | 249 | 5.0 | 10.0 | 0.00 | 0.00 | 0.00 | 61 | 1056.2 |
| 20260901101721 | 82 | 216 | 5.0 | 10.0 | 0.00 | 0.00 | 0.00 | 60 | 1056.3 |
| 20260901101714 | 82 | 231 | 5.0 | 10.0 | 0.00 | 0.00 | 0.00 | 60 | 1056.3 |
| 20260901101349 | 82 | 235 | 5.0 | 10.0 | 0.00 | 0.00 | 0.00 | 60 | 1056.3 |
| 20260901101250 | 82 | 199 | 5.0 | 11.0 | 0.00 | 0.00 | 0.00 | 60 | 1056.2 |
| 20260901101141 | 82 | 172 | 5.0 | 11.0 | 0.00 | 0.00 | 0.00 | 60 | 1056.2 |
| 20260901101041 | 82 | 235 | 5.0 | 11.0 | 0.00 | 0.00 | 0.00 | 60 | 1056.2 |
| 20260901101030 | 82 | 234 | 5.0 | 11.0 | 0.00 | 0.00 | 0.00 | 60 | 1056.2 |
| 20260901100942 | 82 | 242 | 4.0 | 11.0 | 0.00 | 0.00 | 0.00 | 59 | 1056.2 |
| 20260901100846 | 82 | 135 | 4.0 | 11.0 | 0.00 | 0.00 | 0.00 | 60 | 1056.2 |
| 20260901100741 | 82 | 169 | 4.0 | 11.0 | 0.00 | 0.00 | 0.00 | 60 | 1056.3 |
| 20260901100642 | 82 | 237 | 5.0 | 11.0 | 0.00 | 0.00 | 0.00 | 60 | 1056.2 |
| 20260901100542 | 82 | 171 | 5.0 | 11.0 | 0.00 | 0.00 | 0.00 | 60 | 1056.3 |
| 20260901100529 | 82 | 194 | 5.0 | 11.0 | 0.00 | 0.00 | 0.00 | 60 | 1056.3 |
| 20260901100442 | 82 | 208 | 5.0 | 11.0 | 0.00 | 0.00 | 0.00 | 60 | 1056.2 |
| 20260901100341 | 82 | 214 | 4.0 | 11.0 | 0.00 | 0.00 | 0.00 | 60 | 1056.2 |
| 20260901100241 | 82 | 156 | 4.0 | 11.0 | 0.00 | 0.00 | 0.00 | 60 | 1056.2 |
| 20260901100142 | 82 | 132 | 4.0 | 11.0 | 0.00 | 0.00 | 0.00 | 60 | 1056.2 |
| 20260901100042 | 82 | 155 | 4.0 | 11.0 | 0.00 | 0.00 | 0.00 | 61 | 1056.2 |
| 20260901100030 | 82 | 156 | 4.0 | 11.0 | 0.00 | 0.00 | 0.00 | 61 | 1056.2 |
| 20260901095941 | 82 | 243 | 4.0 | 11.0 | 0.00 | 0.00 | 0.00 | 61 | 1056.3 |
| 20260901095842 | 82 | 244 | 4.0 | 11.0 | 0.00 | 0.00 | 0.00 | 61 | 1056.3 |
| 20260901095741 | 82 | 215 | 4.0 | 11.0 | 0.00 | 0.00 | 0.00 | 60 | 1056.3 |
| 20260901095642 | 82 | 218 | 4.0 | 11.0 | 0.00 | 0.00 | 0.00 | 61 | 1056.3 |
| 20260901095542 | 82 | 154 | 4.0 | 11.0 | 0.00 | 0.00 | 0.00 | 60 | 1056.3 |
| 20260901095530 | 82 | 175 | 4.0 | 11.0 | 0.00 | 0.00 | 0.00 | 61 | 1056.3 |
| 20260901095442 | 82 | 215 | 4.0 | 11.0 | 0.00 | 0.00 | 0.00 | 61 | 1056.3 |
| 20260901095429 | 82 | 115 | 4.0 | 11.0 | 0.00 | 0.00 | 0.00 | 61 | 1056.2 |
| 20260901095420 | 82 | 95 | 4.0 | 11.0 | 0.00 | 0.00 | 0.00 | 61 | 1056.2 |
| 20260901095407 | 82 | 195 | 4.0 | 11.0 | 0.00 | 0.00 | 0.00 | 61 | 1056.2 |
| 20260901095355 | 82 | 132 | 4.0 | 11.0 | 0.00 | 0.00 | 0.00 | 62 | 1056.2 |
| 20260901095349 | 82 | 175 | 4.0 | 11.0 | 0.00 | 0.00 | 0.00 | 62 | 1056.2 |
| 20260901095121 | 82 | 161 | 4.0 | 11.0 | 0.00 | 0.00 | 0.00 | 61 | 1056.2 |
| 20260901095111 | 82 | 108 | 4.0 | 11.0 | 0.00 | 0.00 | 0.00 | 60 | 1056.2 |
| 20260901094835 | 82 | 178 | 4.0 | 11.0 | 0.00 | 0.00 | 0.00 | 61 | 1056.3 |
| 20260901094609 | 83 | 241 | 4.0 | 11.0 | 0.00 | 0.00 | 0.00 | 61 | 1056.3 |
| 20260901094336 | 83 | 231 | 3.0 | 8.0 | 0.00 | 0.00 | 0.00 | 60 | 1056.3 |
| 20260901094329 | 83 | 164 | 3.0 | 8.0 | 0.00 | 0.00 | 0.00 | 60 | 1056.2 |
| 20260901094054 | 83 | 198 | 3.0 | 8.0 | 0.00 | 0.00 | 0.00 | 60 | 1056.3 |
| 20260901094046 | 83 | 123 | 2.0 | 8.0 | 0.00 | 0.00 | 0.00 | 60 | 1056.2 |
| 20260901094033 | 83 | 135 | 2.0 | 6.0 | 0.00 | 0.00 | 0.00 | 60 | 1056.2 |
| 20260901094022 | 83 | 136 | 2.0 | 6.0 | 0.00 | 0.00 | 0.00 | 60 | 1056.1 |
| 20260901093745 | 83 | 133 | 2.0 | 6.0 | 0.00 | 0.00 | 0.00 | 61 | 1056.2 |
| 20260901093501 | 83 | 147 | 2.0 | 6.0 | 0.00 | 0.00 | 0.00 | 61 | 1056.1 |
| 20260901093453 | 83 | 146 | 2.0 | 6.0 | 0.00 | 0.00 | 0.00 | 61 | 1056.1 |
| 20260901093441 | 83 | 211 | 2.0 | 9.0 | 0.00 | 0.00 | 0.00 | 61 | 1056.1 |
| 20260901093429 | 82 | 160 | 2.0 | 9.0 | 0.00 | 0.00 | 0.00 | 62 | 1056.1 |
| 20260901093418 | 82 | 125 | 3.0 | 9.0 | 0.00 | 0.00 | 0.00 | 61 | 1056.1 |
| 20260901092837 | 82 | 87 | 4.0 | 10.0 | 0.00 | 0.00 | 0.00 | 61 | 1056.1 |
| 20260901092737 | 82 | 100 | 4.0 | 10.0 | 0.00 | 0.00 | 0.00 | 61 | 1056.1 |
| 20260901092637 | 82 | 177 | 4.0 | 10.0 | 0.00 | 0.00 | 0.00 | 62 | 1056.1 |
| 20260901092539 | 82 | 183 | 4.0 | 10.0 | 0.00 | 0.00 | 0.00 | 62 | 1056.2 |
| 20260901092530 | 82 | 186 | 4.0 | 10.0 | 0.00 | 0.00 | 0.00 | 62 | 1056.2 |
| 20260901092437 | 82 | 202 | 4.0 | 10.0 | 0.00 | 0.00 | 0.00 | 62 | 1056.1 |
| 20260901092337 | 82 | 144 | 4.0 | 10.0 | 0.00 | 0.00 | 0.00 | 62 | 1056.1 |
| 20260901092238 | 82 | 226 | 4.0 | 10.0 | 0.00 | 0.00 | 0.00 | 62 | 1056.1 |
| 20260901092137 | 82 | 249 | 5.0 | 10.0 | 0.00 | 0.00 | 0.00 | 62 | 1056.0 |
| 20260901092037 | 82 | 234 | 5.0 | 10.0 | 0.00 | 0.00 | 0.00 | 62 | 1056.0 |
| 20260901092029 | 82 | 221 | 5.0 | 10.0 | 0.00 | 0.00 | 0.00 | 63 | 1056.0 |
| 20260901091959 | 82 | 235 | 4.0 | 10.0 | 0.00 | 0.00 | 0.00 | 62 | 1056.0 |
| 20260901091950 | 82 | 237 | 4.0 | 10.0 | 0.00 | 0.00 | 0.00 | 62 | 1056.0 |
| 20260901091937 | 82 | 266 | 4.0 | 10.0 | 0.00 | 0.00 | 0.00 | 62 | 1056.0 |
| 20260901091928 | 82 | 253 | 4.0 | 10.0 | 0.00 | 0.00 | 0.00 | 62 | 1056.0 |
| 20260901091703 | 82 | 236 | 4.0 | 10.0 | 0.00 | 0.00 | 0.00 | 62 | 1056.0 |
| 20260901091338 | 82 | 237 | 4.0 | 10.0 | 0.00 | 0.00 | 0.00 | 62 | 1056.0 |
| 20260901091319 | 82 | 201 | 4.0 | 10.0 | 0.00 | 0.00 | 0.00 | 62 | 1056.0 |
| 20260901091307 | 82 | 204 | 3.0 | 10.0 | 0.00 | 0.00 | 0.00 | 63 | 1056.0 |
| 20260901091029 | 82 | 178 | 3.0 | 8.0 | 0.00 | 0.00 | 0.00 | 62 | 1056.0 |
| 20260901090938 | 82 | 249 | 3.0 | 8.0 | 0.00 | 0.00 | 0.00 | 62 | 1056.0 |
| 20260901090837 | 82 | 249 | 3.0 | 8.0 | 0.00 | 0.00 | 0.00 | 62 | 1055.8 |
| 20260901090737 | 82 | 249 | 2.0 | 8.0 | 0.00 | 0.00 | 0.00 | 62 | 1055.8 |
| 20260901090638 | 82 | 215 | 2.0 | 8.0 | 0.00 | 0.00 | 0.00 | 62 | 1055.8 |
| 20260901090548 | 82 | 172 | 2.0 | 8.0 | 0.00 | 0.00 | 0.00 | 63 | 1055.8 |
| 20260901090544 | 82 | 171 | 2.0 | 8.0 | 0.00 | 0.00 | 0.00 | 63 | 1055.8 |
| 20260901090533 | 82 | 166 | 2.0 | 8.0 | 0.00 | 0.00 | 0.00 | 63 | 1055.7 |
| 20260901090524 | 82 | 133 | 3.0 | 7.0 | 0.00 | 0.00 | 0.00 | 62 | 1055.8 |
| 20260901090512 | 82 | 141 | 3.0 | 7.0 | 0.00 | 0.00 | 0.00 | 63 | 1055.7 |
| 20260901090237 | 82 | 152 | 3.0 | 7.0 | 0.00 | 0.00 | 0.00 | 62 | 1055.7 |
| 20260901090233 | 82 | 151 | 3.0 | 7.0 | 0.00 | 0.00 | 0.00 | 62 | 1055.7 |
| 20260901090220 | 81 | 150 | 3.0 | 7.0 | 0.00 | 0.00 | 0.00 | 63 | 1055.7 |
| 20260901085635 | 81 | 202 | 3.0 | 9.0 | 0.00 | 0.00 | 0.00 | 64 | 1055.7 |
| 20260901085529 | 81 | 203 | 3.0 | 9.0 | 0.00 | 0.00 | 0.00 | 63 | 1055.7 |
| 20260901085506 | 81 | 177 | 4.0 | 9.0 | 0.00 | 0.00 | 0.00 | 64 | 1055.7 |
| 20260901085458 | 81 | 183 | 3.0 | 9.0 | 0.00 | 0.00 | 0.00 | 64 | 1055.6 |
| 20260901085135 | 81 | 206 | 4.0 | 9.0 | 0.00 | 0.00 | 0.00 | 64 | 1055.6 |
| 20260901085035 | 81 | 204 | 4.0 | 9.0 | 0.00 | 0.00 | 0.00 | 64 | 1055.5 |
| 20260901085029 | 81 | 212 | 4.0 | 9.0 | 0.00 | 0.00 | 0.00 | 64 | 1055.5 |
| 20260901084935 | 81 | 148 | 4.0 | 9.0 | 0.00 | 0.00 | 0.00 | 64 | 1055.6 |
| 20260901084835 | 81 | 149 | 4.0 | 9.0 | 0.00 | 0.00 | 0.00 | 64 | 1055.5 |
| 20260901084736 | 81 | 117 | 3.0 | 9.0 | 0.00 | 0.00 | 0.00 | 64 | 1055.6 |
| 20260901084655 | 81 | 122 | 3.0 | 9.0 | 0.00 | 0.00 | 0.00 | 63 | 1055.5 |
| 20260901084645 | 81 | 102 | 3.0 | 9.0 | 0.00 | 0.00 | 0.00 | 63 | 1055.5 |
| 20260901084640 | 81 | 104 | 3.0 | 9.0 | 0.00 | 0.00 | 0.00 | 63 | 1055.5 |
| 20260901084625 | 81 | 116 | 2.0 | 9.0 | 0.00 | 0.00 | 0.00 | 63 | 1055.5 |
| 20260901084359 | 81 | 156 | 2.0 | 9.0 | 0.00 | 0.00 | 0.00 | 63 | 1055.5 |
| 20260901084034 | 81 | 115 | 2.0 | 5.0 | 0.00 | 0.00 | 0.00 | 63 | 1055.4 |
| 20260901084029 | 81 | 150 | 2.0 | 5.0 | 0.00 | 0.00 | 0.00 | 63 | 1055.4 |
| 20260901083932 | 81 | 112 | 2.0 | 4.0 | 0.00 | 0.00 | 0.00 | 62 | 1055.4 |
| 20260901083831 | 81 | 201 | 2.0 | 4.0 | 0.00 | 0.00 | 0.00 | 62 | 1055.5 |
| 20260901083729 | 81 | 201 | 2.0 | 5.0 | 0.00 | 0.00 | 0.00 | 63 | 1055.4 |
| 20260901083707 | 81 | 200 | 2.0 | 5.0 | 0.00 | 0.00 | 0.00 | 63 | 1055.4 |
| 20260901083654 | 80 | 201 | 2.0 | 5.0 | 0.00 | 0.00 | 0.00 | 63 | 1055.4 |
| 20260901083331 | 80 | 201 | 3.0 | 5.0 | 0.00 | 0.00 | 0.00 | 62 | 1055.4 |
| 20260901083309 | 80 | 200 | 3.0 | 5.0 | 0.00 | 0.00 | 0.00 | 63 | 1055.4 |
| 20260901083259 | 80 | 131 | 2.0 | 5.0 | 0.00 | 0.00 | 0.00 | 63 | 1055.4 |
| 20260901083029 | 81 | 131 | 2.0 | 5.0 | 0.00 | 0.00 | 0.00 | 63 | 1055.4 |
| 20260901082929 | 81 | 131 | 2.0 | 5.0 | 0.00 | 0.00 | 0.00 | 62 | 1055.4 |
| 20260901082830 | 81 | 131 | 2.0 | 5.0 | 0.00 | 0.00 | 0.00 | 61 | 1055.4 |
| 20260901082729 | 81 | 138 | 2.0 | 5.0 | 0.00 | 0.00 | 0.00 | 62 | 1055.4 |
| 20260901082710 | 81 | 140 | 2.0 | 5.0 | 0.00 | 0.00 | 0.00 | 61 | 1055.3 |
| 20260901082657 | 81 | 141 | 2.0 | 5.0 | 0.00 | 0.00 | 0.00 | 61 | 1055.3 |
| 20260901082327 | 81 | 157 | 1.0 | 5.0 | 0.00 | 0.00 | 0.00 | 62 | 1055.4 |
| 20260901082227 | 81 | 169 | 2.0 | 4.0 | 0.00 | 0.00 | 0.00 | 63 | 1055.4 |
| 20260901082203 | 81 | 169 | 2.0 | 4.0 | 0.00 | 0.00 | 0.00 | 63 | 1055.4 |
| 20260901082150 | 81 | 170 | 1.0 | 4.0 | 0.00 | 0.00 | 0.00 | 63 | 1055.4 |
| 20260901081823 | 80 | 170 | 1.0 | 4.0 | 0.00 | 0.00 | 0.00 | 63 | 1055.4 |
| 20260901081815 | 80 | 170 | 1.0 | 4.0 | 0.00 | 0.00 | 0.00 | 62 | 1055.4 |
| 20260901081805 | 80 | 137 | 1.0 | 4.0 | 0.00 | 0.00 | 0.00 | 63 | 1055.4 |
| 20260901081535 | 80 | 136 | 1.0 | 4.0 | 0.00 | 0.00 | 0.00 | 63 | 1055.3 |
| 20260901081525 | 80 | 135 | 1.0 | 4.0 | 0.00 | 0.00 | 0.00 | 63 | 1055.3 |
| 20260901081511 | 80 | 135 | 2.0 | 4.0 | 0.00 | 0.00 | 0.00 | 63 | 1055.3 |
| 20260901081244 | 80 | 135 | 2.0 | 5.0 | 0.00 | 0.00 | 0.00 | 63 | 1055.3 |
| 20260901081228 | 80 | 134 | 2.0 | 5.0 | 0.00 | 0.00 | 0.00 | 63 | 1055.3 |
| 20260901080905 | 80 | 133 | 2.0 | 5.0 | 0.00 | 0.00 | 0.00 | 63 | 1055.3 |
| 20260901080806 | 80 | 134 | 1.0 | 5.0 | 0.00 | 0.00 | 0.00 | 63 | 1055.3 |
| 20260901080745 | 80 | 134 | 1.0 | 5.0 | 0.00 | 0.00 | 0.00 | 63 | 1055.3 |
| 20260901080735 | 80 | 135 | 1.0 | 5.0 | 0.00 | 0.00 | 0.00 | 63 | 1055.2 |
| 20260901080507 | 81 | 134 | 1.0 | 5.0 | 0.00 | 0.00 | 0.00 | 62 | 1055.3 |
| 20260901080403 | 81 | 135 | 1.0 | 5.0 | 0.00 | 0.00 | 0.00 | 62 | 1055.3 |
| 20260901080324 | 81 | 134 | 1.0 | 5.0 | 0.00 | 0.00 | 0.00 | 62 | 1055.3 |
| 20260901080314 | 81 | 210 | 1.0 | 4.0 | 0.00 | 0.00 | 0.00 | 63 | 1055.3 |
| 20260901080259 | 81 | 227 | 1.0 | 4.0 | 0.00 | 0.00 | 0.00 | 62 | 1055.3 |
| 20260901080245 | 81 | 227 | 1.0 | 4.0 | 0.00 | 0.00 | 0.00 | 63 | 1055.3 |
| 20260901075703 | 81 | 227 | 1.0 | 4.0 | 0.00 | 0.00 | 0.00 | 64 | 1055.3 |
| 20260901075603 | 80 | 227 | 1.0 | 4.0 | 0.00 | 0.00 | 0.00 | 65 | 1055.3 |
| 20260901075506 | 80 | 306 | 1.0 | 3.0 | 0.00 | 0.00 | 0.00 | 65 | 1055.3 |
| 20260901075403 | 80 | 305 | 2.0 | 3.0 | 0.00 | 0.00 | 0.00 | 64 | 1055.3 |
| 20260901075307 | 80 | 305 | 2.0 | 3.0 | 0.00 | 0.00 | 0.00 | 64 | 1055.3 |
| 20260901075203 | 80 | 305 | 2.0 | 3.0 | 0.00 | 0.00 | 0.00 | 64 | 1055.3 |
| 20260901075104 | 80 | 305 | 2.0 | 3.0 | 0.00 | 0.00 | 0.00 | 65 | 1055.3 |
| 20260901075033 | 80 | 305 | 2.0 | 3.0 | 0.00 | 0.00 | 0.00 | 66 | 1055.3 |
| 20260901075021 | 80 | 305 | 2.0 | 3.0 | 0.00 | 0.00 | 0.00 | 67 | 1055.3 |
| 20260901075005 | 80 | 305 | 2.0 | 3.0 | 0.00 | 0.00 | 0.00 | 67 | 1055.3 |
| 20260901074736 | 80 | 305 | 1.0 | 3.0 | 0.00 | 0.00 | 0.00 | 67 | 1055.3 |
| 20260901074722 | 80 | 305 | 1.0 | 3.0 | 0.00 | 0.00 | 0.00 | 67 | 1055.3 |
| 20260901074404 | 79 | 308 | 1.0 | 3.0 | 0.00 | 0.00 | 0.00 | 67 | 1055.3 |
| 20260901074303 | 79 | 308 | 1.0 | 3.0 | 0.00 | 0.00 | 0.00 | 68 | 1055.3 |
| 20260901074249 | 79 | 308 | 1.0 | 3.0 | 0.00 | 0.00 | 0.00 | 68 | 1055.3 |
| 20260901074239 | 79 | 309 | 1.0 | 3.0 | 0.00 | 0.00 | 0.00 | 69 | 1055.3 |
| 20260901074006 | 79 | 310 | 1.0 | 3.0 | 0.00 | 0.00 | 0.00 | 69 | 1055.3 |
| 20260901073929 | 79 | 309 | 1.0 | 3.0 | 0.00 | 0.00 | 0.00 | 69 | 1055.3 |
| 20260901073918 | 79 | 309 | 0.0 | 3.0 | 0.00 | 0.00 | 0.00 | 70 | 1055.3 |
| 20260901073906 | 79 | 309 | 0.0 | 3.0 | 0.00 | 0.00 | 0.00 | 70 | 1055.3 |
| 20260901073635 | 78 | 310 | 0.0 | 2.0 | 0.00 | 0.00 | 0.00 | 70 | 1055.3 |
| 20260901073628 | 78 | 310 | 0.0 | 2.0 | 0.00 | 0.00 | 0.00 | 70 | 1055.3 |
| 20260901073302 | 78 | 310 | 1.0 | 3.0 | 0.00 | 0.00 | 0.00 | 71 | 1055.3 |
| 20260901073236 | 78 | 311 | 1.0 | 3.0 | 0.00 | 0.00 | 0.00 | 71 | 1055.2 |
| 20260901073221 | 78 | 310 | 1.0 | 3.0 | 0.00 | 0.00 | 0.00 | 72 | 1055.3 |
| 20260901072953 | 78 | 310 | 1.0 | 3.0 | 0.00 | 0.00 | 0.00 | 73 | 1055.3 |
| 20260901072854 | 77 | 310 | 1.0 | 3.0 | 0.00 | 0.00 | 0.00 | 72 | 1055.2 |
| 20260901072754 | 77 | 311 | 1.0 | 3.0 | 0.00 | 0.00 | 0.00 | 72 | 1055.3 |
| 20260901072653 | 77 | 311 | 1.0 | 4.0 | 0.00 | 0.00 | 0.00 | 72 | 1055.3 |
| 20260901072553 | 77 | 311 | 1.0 | 4.0 | 0.00 | 0.00 | 0.00 | 72 | 1055.3 |
| 20260901072506 | 77 | 311 | 1.0 | 4.0 | 0.00 | 0.00 | 0.00 | 73 | 1055.3 |
| 20260901072448 | 77 | 311 | 1.0 | 4.0 | 0.00 | 0.00 | 0.00 | 73 | 1055.3 |
| 20260901072348 | 77 | 311 | 1.0 | 4.0 | 0.00 | 0.00 | 0.00 | 73 | 1055.3 |
| 20260901072333 | 76 | 311 | 1.0 | 4.0 | 0.00 | 0.00 | 0.00 | 73 | 1055.3 |
| 20260901072325 | 76 | 311 | 1.0 | 4.0 | 0.00 | 0.00 | 0.00 | 74 | 1055.3 |
| 20260901072308 | 76 | 311 | 1.0 | 4.0 | 0.00 | 0.00 | 0.00 | 75 | 1055.3 |
| 20260901072031 | 76 | 312 | 1.0 | 4.0 | 0.00 | 0.00 | 0.00 | 75 | 1055.3 |
| 20260901072019 | 76 | 311 | 1.0 | 4.0 | 0.00 | 0.00 | 0.00 | 75 | 1055.3 |
| 20260901071504 | 75 | 310 | 1.0 | 4.0 | 0.00 | 0.00 | 0.00 | 75 | 1055.3 |
| 20260901071440 | 75 | 310 | 1.0 | 4.0 | 0.00 | 0.00 | 0.00 | 76 | 1055.3 |
| 20260901071340 | 75 | 269 | 0.0 | 2.0 | 0.00 | 0.00 | 0.00 | 76 | 1055.3 |
| 20260901071238 | 75 | 268 | 1.0 | 3.0 | 0.00 | 0.00 | 0.00 | 77 | 1055.3 |
| 20260901071222 | 75 | 268 | 1.0 | 3.0 | 0.00 | 0.00 | 0.00 | 77 | 1055.3 |
| 20260901071209 | 75 | 268 | 1.0 | 3.0 | 0.00 | 0.00 | 0.00 | 78 | 1055.3 |
| 20260901071159 | 74 | 268 | 1.0 | 3.0 | 0.00 | 0.00 | 0.00 | 78 | 1055.3 |
| 20260901070834 | 74 | 268 | 1.0 | 3.0 | 0.00 | 0.00 | 0.00 | 78 | 1055.3 |
| 20260901070731 | 74 | 268 | 1.0 | 3.0 | 0.00 | 0.00 | 0.00 | 78 | 1055.3 |
| 20260901070633 | 74 | 268 | 1.0 | 3.0 | 0.00 | 0.00 | 0.00 | 79 | 1055.3 |
| 20260901070611 | 74 | 268 | 1.0 | 3.0 | 0.00 | 0.00 | 0.00 | 79 | 1055.3 |
| 20260901070603 | 74 | 268 | 2.0 | 3.0 | 0.00 | 0.00 | 0.00 | 79 | 1055.3 |
| 20260901070556 | 74 | 268 | 2.0 | 3.0 | 0.00 | 0.00 | 0.00 | 79 | 1055.3 |
| 20260901070544 | 74 | 268 | 2.0 | 3.0 | 0.00 | 0.00 | 0.00 | 80 | 1055.3 |
| 20260901070518 | 73 | 268 | 2.0 | 3.0 | 0.00 | 0.00 | 0.00 | 80 | 1055.3 |
| 20260901070006 | 73 | 268 | 2.0 | 3.0 | 0.00 | 0.00 | 0.00 | 81 | 1055.3 |
| 20260901065928 | 73 | 268 | 2.0 | 3.0 | 0.00 | 0.00 | 0.00 | 81 | 1055.3 |
| 20260901065826 | 73 | 268 | 2.0 | 3.0 | 0.00 | 0.00 | 0.00 | 82 | 1055.3 |
| 20260901065800 | 72 | 268 | 2.0 | 3.0 | 0.00 | 0.00 | 0.00 | 82 | 1055.3 |
| 20260901065751 | 72 | 268 | 2.0 | 3.0 | 0.00 | 0.00 | 0.00 | 82 | 1055.3 |
| 20260901065507 | 72 | 268 | 2.0 | 3.0 | 0.00 | 0.00 | 0.00 | 83 | 1055.3 |
| 20260901065459 | 72 | 268 | 2.0 | 3.0 | 0.00 | 0.00 | 0.00 | 83 | 1055.3 |
| 20260901065451 | 72 | 268 | 2.0 | 3.0 | 0.00 | 0.00 | 0.00 | 83 | 1055.3 |
| 20260901065122 | 71 | 268 | 2.0 | 3.0 | 0.00 | 0.00 | 0.00 | 84 | 1055.3 |
| 20260901065004 | 71 | 268 | 2.0 | 3.0 | 0.00 | 0.00 | 0.00 | 84 | 1055.3 |
| 20260901064920 | 71 | 268 | 2.0 | 3.0 | 0.00 | 0.00 | 0.00 | 84 | 1055.3 |
| 20260901064819 | 71 | 268 | 2.0 | 3.0 | 0.00 | 0.00 | 0.00 | 84 | 1055.3 |
| 20260901064716 | 71 | 268 | 2.0 | 3.0 | 0.00 | 0.00 | 0.00 | 85 | 1055.3 |
| 20260901064651 | 71 | 268 | 2.0 | 3.0 | 0.00 | 0.00 | 0.00 | 85 | 1055.3 |
| 20260901064636 | 71 | 268 | 2.0 | 3.0 | 0.00 | 0.00 | 0.00 | 85 | 1055.3 |
| 20260901064312 | 70 | 268 | 2.0 | 3.0 | 0.00 | 0.00 | 0.00 | 86 | 1055.3 |
| 20260901064242 | 70 | 268 | 2.0 | 3.0 | 0.00 | 0.00 | 0.00 | 86 | 1055.4 |
| 20260901064232 | 70 | 268 | 2.0 | 3.0 | 0.00 | 0.00 | 0.00 | 86 | 1055.4 |
| 20260901064218 | 70 | 268 | 2.0 | 3.0 | 0.00 | 0.00 | 0.00 | 86 | 1055.4 |
| 20260901063906 | 70 | 268 | 2.0 | 4.0 | 0.00 | 0.00 | 0.00 | 87 | 1055.4 |
| 20260901063805 | 70 | 268 | 2.0 | 4.0 | 0.00 | 0.00 | 0.00 | 87 | 1055.4 |
| 20260901063704 | 69 | 268 | 2.0 | 4.0 | 0.00 | 0.00 | 0.00 | 87 | 1055.4 |
| 20260901063604 | 69 | 268 | 2.0 | 4.0 | 0.00 | 0.00 | 0.00 | 87 | 1055.4 |
| 20260901063508 | 69 | 268 | 2.0 | 4.0 | 0.00 | 0.00 | 0.00 | 87 | 1055.4 |
| 20260901063403 | 69 | 268 | 2.0 | 4.0 | 0.00 | 0.00 | 0.00 | 88 | 1055.4 |
| 20260901063305 | 69 | 268 | 3.0 | 4.0 | 0.00 | 0.00 | 0.00 | 88 | 1055.5 |
| 20260901063229 | 69 | 268 | 3.0 | 4.0 | 0.00 | 0.00 | 0.00 | 88 | 1055.5 |
| 20260901063218 | 69 | 268 | 3.0 | 4.0 | 0.00 | 0.00 | 0.00 | 88 | 1055.5 |
| 20260901063204 | 69 | 268 | 3.0 | 4.0 | 0.00 | 0.00 | 0.00 | 88 | 1055.5 |
| 20260901063146 | 69 | 268 | 3.0 | 4.0 | 0.00 | 0.00 | 0.00 | 88 | 1055.5 |
| 20260901062603 | 68 | 268 | 2.0 | 4.0 | 0.00 | 0.00 | 0.00 | 89 | 1055.5 |
| 20260901062509 | 68 | 268 | 2.0 | 4.0 | 0.00 | 0.00 | 0.00 | 89 | 1055.5 |
| 20260901062403 | 68 | 268 | 2.0 | 4.0 | 0.00 | 0.00 | 0.00 | 89 | 1055.5 |
| 20260901062310 | 68 | 268 | 2.0 | 4.0 | 0.00 | 0.00 | 0.00 | 89 | 1055.5 |
| 20260901062203 | 68 | 268 | 2.0 | 4.0 | 0.00 | 0.00 | 0.00 | 89 | 1055.6 |
| 20260901062103 | 68 | 268 | 2.0 | 4.0 | 0.00 | 0.00 | 0.00 | 89 | 1055.6 |
| 20260901062007 | 67 | 268 | 2.0 | 4.0 | 0.00 | 0.00 | 0.00 | 90 | 1055.5 |
| 20260901061905 | 67 | 268 | 2.0 | 4.0 | 0.00 | 0.00 | 0.00 | 90 | 1055.5 |
| 20260901061805 | 67 | 268 | 2.0 | 4.0 | 0.00 | 0.00 | 0.00 | 90 | 1055.5 |
| 20260901061703 | 67 | 268 | 2.0 | 4.0 | 0.00 | 0.00 | 0.00 | 90 | 1055.5 |
| 20260901061603 | 67 | 268 | 2.0 | 4.0 | 0.00 | 0.00 | 0.00 | 90 | 1055.5 |
| 20260901061507 | 67 | 268 | 2.0 | 4.0 | 0.00 | 0.00 | 0.00 | 90 | 1055.5 |
| 20260901061435 | 67 | 268 | 2.0 | 4.0 | 0.00 | 0.00 | 0.00 | 90 | 1055.5 |
| 20260901061427 | 67 | 268 | 3.0 | 4.0 | 0.00 | 0.00 | 0.00 | 90 | 1055.4 |
| 20260901061150 | 67 | 268 | 3.0 | 4.0 | 0.00 | 0.00 | 0.00 | 90 | 1055.5 |
| 20260901061137 | 67 | 267 | 3.0 | 4.0 | 0.00 | 0.00 | 0.00 | 90 | 1055.4 |
| 20260901060804 | 66 | 267 | 3.0 | 4.0 | 0.00 | 0.00 | 0.00 | 90 | 1055.4 |
| 20260901060743 | 66 | 267 | 3.0 | 4.0 | 0.00 | 0.00 | 0.00 | 90 | 1055.4 |
| 20260901060731 | 66 | 267 | 3.0 | 4.0 | 0.00 | 0.00 | 0.00 | 90 | 1055.5 |
| 20260901060507 | 66 | 268 | 3.0 | 4.0 | 0.00 | 0.00 | 0.00 | 90 | 1055.4 |
| 20260901060403 | 66 | 268 | 3.0 | 4.0 | 0.00 | 0.00 | 0.00 | 90 | 1055.3 |
| 20260901060303 | 66 | 267 | 2.0 | 4.0 | 0.00 | 0.00 | 0.00 | 90 | 1055.3 |
| 20260901060204 | 66 | 267 | 2.0 | 4.0 | 0.00 | 0.00 | 0.00 | 90 | 1055.4 |
| 20260901060104 | 66 | 267 | 2.0 | 4.0 | 0.00 | 0.00 | 0.00 | 90 | 1055.4 |
| 20260901060015 | 66 | 268 | 2.0 | 4.0 | 0.00 | 0.00 | 0.00 | 90 | 1055.4 |
| 20260901055904 | 66 | 267 | 2.0 | 4.0 | 0.00 | 0.00 | 0.00 | 90 | 1055.4 |
| 20260901055803 | 66 | 267 | 2.0 | 4.0 | 0.00 | 0.00 | 0.00 | 90 | 1055.4 |
| 20260901055703 | 66 | 268 | 2.0 | 4.0 | 0.00 | 0.00 | 0.00 | 90 | 1055.4 |
| 20260901055604 | 65 | 268 | 2.0 | 4.0 | 0.00 | 0.00 | 0.00 | 90 | 1055.4 |
| 20260901055535 | 65 | 267 | 2.0 | 4.0 | 0.00 | 0.00 | 0.00 | 90 | 1055.3 |
| 20260901055524 | 65 | 267 | 2.0 | 4.0 | 0.00 | 0.00 | 0.00 | 90 | 1055.4 |
| 20260901055204 | 65 | 267 | 2.0 | 4.0 | 0.00 | 0.00 | 0.00 | 90 | 1055.4 |
| 20260901055147 | 65 | 267 | 3.0 | 4.0 | 0.00 | 0.00 | 0.00 | 90 | 1055.4 |
| 20260901055134 | 65 | 267 | 3.0 | 4.0 | 0.00 | 0.00 | 0.00 | 90 | 1055.4 |
| 20260901054844 | 65 | 267 | 3.0 | 4.0 | 0.00 | 0.00 | 0.00 | 90 | 1055.4 |
| 20260901054835 | 65 | 267 | 3.0 | 4.0 | 0.00 | 0.00 | 0.00 | 90 | 1055.4 |
| 20260901054822 | 65 | 268 | 3.0 | 4.0 | 0.00 | 0.00 | 0.00 | 90 | 1055.4 |
| 20260901054810 | 65 | 268 | 2.0 | 4.0 | 0.00 | 0.00 | 0.00 | 90 | 1055.4 |
| 20260901054536 | 65 | 267 | 2.0 | 4.0 | 0.00 | 0.00 | 0.00 | 90 | 1055.3 |
| 20260901054303 | 65 | 267 | 2.0 | 4.0 | 0.00 | 0.00 | 0.00 | 90 | 1055.3 |
| 20260901054040 | 65 | 266 | 2.0 | 4.0 | 0.00 | 0.00 | 0.00 | 90 | 1055.3 |
| 20260901054031 | 65 | 266 | 2.0 | 4.0 | 0.00 | 0.00 | 0.00 | 90 | 1055.3 |